[{"header": {"parameterCategory": 1, "parameterNumber": 2, "dx": 0.06612293990616946, "dy": 0.0552356325346848, "nx": 98, "ny": 59, "la1": 35.046912555036876, "la2": 31.78801023549047, "lo1": -121.43107172385933, "lo2": -114.95102361305473, "refTime": "2026040811"}, "data": [9.39, 9.39, 9.39, 9.39, 9.39, 9.39, 9.39, 9.39, 9.39, 8.94, 8.94, 8.49, 8.49, 8.05, 8.05, 8.05, 8.05, 8.05, 8.05, 8.05, 8.05, 8.05, 8.05, 8.05, 8.05, 8.05, 8.05, 8.05, 8.05, 8.05, 8.05, 8.05, 8.05, 8.05, 8.05, 7.6, 7.6, 7.6, 7.6, 7.6, 7.6, 7.15, 7.15, 6.71, 6.71, 6.71, 7.15, 7.15, 7.15, 6.71, 6.71, 6.71, 6.71, 6.71, 6.26, 5.81, 5.81, 5.36, 5.81, 5.81, 5.81, 5.81, 5.81, 5.81, 5.81, 6.26, 5.81, 5.81, 5.81, 5.81, 5.81, 5.81, 5.81, 5.36, 5.36, 5.36, 5.36, 5.36, 5.36, 5.36, 5.36, 5.36, 5.36, 5.36, 5.36, 5.36, 5.81, 5.81, 5.81, 5.81, 5.81, 6.26, 6.26, 6.26, 5.81, 5.81, 5.81, 5.81, 9.39, 9.39, 9.39, 9.39, 9.39, 9.39, 9.39, 9.39, 9.39, 8.94, 8.94, 8.49, 8.49, 8.05, 8.05, 8.05, 8.05, 8.05, 8.05, 8.05, 8.05, 8.05, 8.05, 8.05, 8.05, 8.05, 8.05, 8.05, 8.05, 8.05, 7.6, 8.05, 8.05, 7.6, 7.6, 7.6, 7.6, 7.6, 8.05, 8.05, 7.6, 7.15, 7.15, 6.71, 6.71, 7.15, 7.15, 7.15, 6.71, 6.71, 6.71, 6.71, 6.71, 6.71, 6.26, 5.81, 5.81, 5.36, 5.81, 5.81, 5.81, 5.81, 5.81, 5.81, 6.26, 6.26, 6.26, 6.26, 5.81, 5.81, 5.81, 5.81, 5.81, 5.36, 5.36, 5.36, 5.36, 5.36, 5.36, 5.36, 5.36, 5.36, 5.36, 5.36, 5.36, 5.36, 5.81, 5.81, 5.81, 5.81, 5.81, 6.26, 6.26, 6.26, 5.81, 5.81, 5.81, 5.81, 9.39, 9.39, 9.39, 9.39, 9.39, 9.39, 9.39, 9.39, 9.39, 8.94, 8.94, 8.49, 8.49, 8.05, 8.05, 8.05, 8.05, 8.05, 8.05, 8.05, 8.05, 8.05, 8.05, 8.05, 8.05, 8.05, 8.05, 8.05, 8.05, 8.05, 7.6, 7.6, 7.6, 7.6, 7.6, 7.6, 7.6, 7.6, 8.05, 7.6, 7.6, 7.15, 6.71, 6.71, 7.15, 7.15, 7.15, 6.71, 6.71, 6.71, 6.71, 6.71, 6.71, 6.71, 6.26, 6.26, 5.81, 5.81, 5.81, 5.81, 5.81, 5.81, 5.81, 5.81, 6.26, 6.26, 6.26, 6.26, 5.81, 5.81, 5.81, 5.81, 5.81, 5.81, 5.36, 5.36, 5.36, 5.36, 5.36, 5.36, 5.36, 5.36, 5.36, 5.36, 5.36, 5.36, 5.36, 5.36, 5.81, 5.81, 5.81, 5.81, 5.81, 5.81, 5.81, 5.81, 5.81, 5.81, 9.39, 9.39, 9.39, 9.39, 9.39, 9.39, 9.39, 9.39, 9.39, 8.94, 8.94, 8.49, 8.49, 8.05, 8.05, 8.05, 7.6, 8.05, 8.05, 8.05, 8.05, 8.05, 8.05, 8.05, 8.05, 8.05, 8.05, 7.6, 7.6, 7.6, 7.6, 7.6, 7.6, 7.6, 7.6, 7.6, 7.6, 7.6, 7.6, 7.6, 7.15, 7.15, 7.15, 7.15, 7.15, 7.15, 6.71, 6.71, 6.26, 6.26, 6.26, 6.71, 6.71, 6.26, 6.26, 6.26, 5.81, 5.81, 5.81, 5.81, 5.81, 5.81, 5.81, 5.81, 5.81, 6.26, 6.26, 6.26, 6.26, 5.81, 5.81, 5.81, 5.81, 5.81, 5.36, 5.36, 5.36, 5.36, 5.36, 5.36, 5.36, 5.36, 5.36, 5.36, 5.36, 5.36, 5.36, 5.36, 5.36, 5.36, 5.81, 5.81, 5.81, 5.81, 5.81, 5.81, 5.81, 5.81, 8.94, 8.94, 9.39, 9.39, 9.39, 9.39, 9.39, 9.39, 8.94, 8.94, 8.94, 8.49, 8.49, 8.05, 8.05, 8.05, 7.6, 7.6, 8.05, 8.05, 8.05, 8.05, 8.05, 8.05, 8.05, 7.6, 7.6, 7.6, 7.6, 7.6, 7.6, 7.6, 7.6, 7.6, 7.6, 7.6, 8.05, 7.6, 7.6, 7.6, 7.15, 7.15, 7.15, 7.15, 7.15, 6.71, 6.71, 6.26, 6.26, 6.26, 6.26, 6.26, 6.26, 6.26, 6.26, 6.26, 6.26, 5.81, 5.81, 5.81, 5.81, 5.81, 5.81, 5.81, 5.81, 5.81, 6.26, 6.26, 6.26, 5.81, 5.81, 5.81, 5.81, 5.81, 5.36, 5.36, 5.36, 4.92, 4.92, 5.36, 4.92, 4.92, 4.92, 5.36, 5.36, 5.36, 5.36, 5.36, 5.36, 5.36, 5.81, 5.81, 5.81, 5.81, 5.81, 5.81, 5.81, 5.81, 8.94, 8.94, 8.94, 9.39, 9.39, 9.39, 9.39, 9.39, 8.94, 8.94, 8.94, 8.49, 8.49, 8.05, 8.05, 8.05, 7.6, 7.6, 7.6, 8.05, 8.05, 8.05, 8.05, 7.6, 7.6, 7.6, 7.15, 7.15, 7.15, 7.15, 7.15, 7.15, 7.15, 7.6, 7.6, 8.05, 8.05, 7.6, 7.6, 7.15, 7.15, 7.15, 7.15, 6.71, 6.71, 6.26, 6.26, 6.26, 6.26, 6.26, 6.26, 6.26, 6.26, 6.26, 6.26, 6.26, 6.26, 5.81, 5.81, 5.81, 5.81, 5.81, 5.81, 5.81, 5.81, 5.81, 6.26, 6.26, 6.26, 6.26, 5.81, 5.81, 5.81, 5.81, 5.36, 5.36, 5.36, 5.36, 4.92, 4.92, 4.92, 4.92, 4.92, 4.92, 5.36, 5.36, 5.36, 5.36, 5.36, 5.36, 5.36, 5.81, 5.81, 5.81, 5.81, 5.81, 5.81, 5.81, 8.94, 8.94, 8.94, 8.94, 8.94, 9.39, 9.39, 8.94, 8.94, 8.94, 8.94, 8.49, 8.49, 8.05, 8.05, 7.6, 7.6, 7.6, 7.6, 7.6, 7.6, 7.6, 7.6, 7.6, 7.6, 7.15, 7.15, 7.15, 7.15, 7.15, 7.15, 7.15, 7.6, 7.6, 7.6, 7.6, 7.6, 7.6, 7.15, 7.15, 7.15, 7.15, 7.15, 6.71, 6.26, 6.26, 6.26, 6.26, 6.26, 6.26, 6.26, 6.26, 6.26, 6.26, 6.26, 6.26, 6.26, 6.26, 5.81, 5.81, 5.81, 5.81, 5.81, 5.81, 5.81, 5.81, 5.81, 6.26, 6.26, 6.26, 6.26, 6.26, 5.81, 5.81, 5.81, 5.36, 5.36, 5.36, 4.92, 4.92, 4.92, 4.92, 4.92, 4.92, 4.92, 4.92, 4.92, 4.92, 5.36, 5.36, 5.36, 5.81, 5.81, 5.81, 5.81, 5.81, 5.81, 5.81, 8.94, 8.94, 8.94, 8.94, 8.94, 8.94, 8.94, 8.94, 8.94, 8.94, 8.94, 8.94, 8.49, 8.05, 8.05, 7.6, 7.6, 7.6, 7.6, 7.6, 7.6, 7.6, 7.6, 7.15, 7.15, 7.15, 6.71, 7.15, 7.15, 7.15, 7.6, 7.6, 7.6, 7.6, 7.6, 7.6, 7.15, 7.15, 6.71, 6.71, 6.71, 6.71, 6.71, 6.26, 6.26, 6.26, 5.81, 6.26, 6.26, 6.26, 6.26, 6.26, 6.26, 6.26, 6.26, 6.26, 6.26, 5.81, 5.81, 5.81, 5.81, 5.81, 5.81, 5.81, 5.81, 5.81, 5.81, 5.81, 6.26, 5.81, 6.26, 6.26, 5.81, 5.81, 5.81, 5.36, 5.36, 5.36, 4.92, 4.92, 4.92, 4.92, 4.92, 4.92, 4.92, 4.92, 4.92, 4.92, 5.36, 5.36, 5.36, 5.36, 5.81, 5.81, 5.81, 5.81, 5.81, 5.81, 8.94, 8.94, 8.94, 8.94, 8.94, 8.94, 8.94, 8.94, 8.94, 8.94, 8.94, 8.94, 8.49, 8.05, 8.05, 7.6, 7.6, 7.6, 7.6, 7.6, 7.6, 7.15, 7.15, 7.15, 6.71, 6.71, 7.15, 7.6, 7.6, 7.6, 7.6, 8.05, 7.6, 7.6, 7.6, 7.15, 7.15, 6.71, 6.71, 6.71, 6.71, 6.71, 6.26, 6.26, 6.26, 6.26, 6.26, 6.26, 6.26, 6.26, 6.26, 6.26, 6.26, 6.26, 6.26, 6.26, 6.26, 5.81, 5.81, 5.81, 5.81, 5.81, 5.81, 5.81, 5.81, 5.81, 5.81, 5.81, 5.81, 5.81, 5.81, 5.81, 5.81, 5.81, 5.81, 5.36, 5.36, 5.36, 4.92, 4.92, 4.92, 4.92, 4.92, 4.92, 4.92, 4.92, 4.92, 4.92, 4.92, 4.92, 5.36, 5.36, 5.36, 5.81, 5.81, 5.81, 5.81, 5.81, 8.94, 8.94, 8.94, 8.94, 8.94, 8.94, 8.94, 8.94, 8.94, 8.94, 8.94, 8.49, 8.49, 8.05, 8.05, 7.6, 7.6, 7.6, 7.6, 7.6, 7.6, 7.15, 7.15, 6.71, 6.71, 6.71, 7.6, 8.05, 8.05, 8.05, 8.05, 7.6, 7.6, 7.6, 7.15, 7.15, 6.71, 6.71, 6.71, 6.71, 6.71, 6.71, 6.26, 6.26, 6.26, 6.26, 6.26, 6.26, 6.26, 6.26, 6.26, 6.26, 6.26, 6.26, 6.26, 6.26, 5.81, 5.81, 5.81, 5.81, 5.81, 5.81, 5.81, 5.81, 5.81, 5.36, 5.36, 5.81, 5.81, 5.81, 5.81, 5.81, 5.81, 5.81, 5.81, 5.81, 5.36, 5.36, 5.36, 4.92, 4.92, 4.92, 4.92, 4.92, 4.92, 4.92, 4.92, 4.92, 4.92, 4.92, 5.36, 5.36, 5.36, 5.81, 5.81, 5.81, 5.81, 5.81, 8.94, 8.94, 8.94, 8.94, 8.94, 8.94, 8.94, 8.94, 8.94, 8.94, 8.94, 8.49, 8.49, 8.05, 8.05, 7.6, 7.6, 7.6, 7.6, 7.6, 7.15, 7.15, 6.71, 6.71, 7.15, 7.15, 8.05, 8.49, 8.05, 7.6, 7.6, 7.15, 7.15, 7.15, 7.15, 7.15, 6.71, 6.71, 6.71, 6.71, 6.71, 6.71, 6.26, 6.26, 6.26, 6.26, 6.26, 6.26, 6.26, 6.26, 6.26, 6.26, 6.26, 6.71, 6.26, 6.26, 5.81, 5.81, 5.81, 5.81, 5.81, 5.36, 5.81, 5.81, 5.81, 5.36, 5.36, 5.81, 5.81, 5.81, 5.81, 5.81, 5.81, 5.81, 5.81, 5.81, 5.81, 5.36, 5.36, 5.36, 4.92, 4.92, 4.92, 4.92, 4.92, 4.92, 4.92, 4.92, 4.92, 4.92, 4.92, 5.36, 5.36, 5.36, 5.36, 5.81, 5.81, 5.81, 8.94, 8.94, 8.49, 8.94, 8.94, 8.94, 8.94, 8.94, 8.94, 8.94, 8.94, 8.49, 8.49, 8.05, 8.05, 7.6, 7.6, 7.6, 7.6, 7.15, 7.15, 6.71, 6.71, 6.71, 7.15, 7.6, 8.05, 8.49, 8.05, 7.6, 7.15, 7.15, 7.15, 7.15, 7.15, 6.71, 6.71, 6.71, 6.71, 6.71, 6.71, 6.71, 6.71, 6.71, 6.71, 6.26, 6.26, 6.26, 6.26, 6.26, 6.26, 6.26, 6.26, 6.71, 6.26, 6.26, 5.81, 5.81, 5.81, 5.81, 5.81, 5.36, 5.36, 5.81, 5.81, 5.81, 5.81, 5.36, 5.81, 5.81, 5.81, 5.81, 5.81, 5.81, 5.81, 5.81, 5.81, 5.36, 5.36, 5.36, 4.92, 4.92, 4.92, 4.92, 4.92, 4.92, 4.92, 4.92, 4.92, 4.92, 4.92, 4.92, 5.36, 5.36, 5.36, 5.36, 5.36, 5.81, 8.49, 8.49, 8.49, 8.49, 8.49, 8.94, 8.94, 8.94, 8.94, 8.94, 8.94, 8.49, 8.49, 8.05, 8.05, 7.6, 7.6, 7.6, 7.15, 7.15, 7.15, 6.71, 6.71, 7.15, 7.6, 8.05, 8.49, 8.05, 7.6, 7.15, 7.15, 7.15, 7.15, 7.15, 6.71, 6.71, 6.71, 6.71, 6.71, 6.71, 6.71, 6.71, 6.71, 6.71, 6.71, 6.71, 6.26, 6.26, 6.26, 6.26, 6.26, 6.26, 6.26, 6.71, 6.26, 6.26, 5.81, 5.36, 5.36, 5.81, 5.81, 5.36, 5.36, 5.81, 5.81, 5.81, 5.81, 5.81, 5.81, 5.81, 5.81, 5.81, 5.81, 5.81, 5.81, 5.36, 5.36, 5.36, 5.36, 5.36, 5.36, 4.92, 4.92, 4.92, 4.47, 4.47, 4.47, 4.92, 4.47, 4.47, 4.92, 4.92, 4.92, 5.36, 5.36, 5.36, 5.36, 5.36, 8.49, 8.49, 8.49, 8.49, 8.49, 8.49, 8.94, 8.94, 8.94, 8.94, 8.49, 8.49, 8.49, 8.05, 8.05, 7.6, 7.6, 7.6, 7.15, 7.15, 7.15, 6.71, 7.15, 7.15, 7.6, 8.05, 8.05, 7.6, 7.15, 7.15, 6.71, 6.71, 7.15, 7.15, 6.71, 6.71, 6.71, 6.71, 6.71, 6.71, 6.71, 6.71, 6.71, 6.71, 6.71, 6.71, 6.26, 6.26, 6.26, 6.26, 6.26, 6.26, 6.26, 6.71, 6.26, 6.26, 5.81, 5.36, 5.36, 5.81, 5.81, 5.36, 5.36, 5.36, 5.81, 5.81, 5.81, 5.36, 5.36, 5.36, 5.36, 5.36, 5.36, 5.36, 5.36, 5.36, 5.36, 5.36, 5.36, 5.36, 5.36, 4.92, 4.92, 4.92, 4.47, 4.47, 4.47, 4.47, 4.47, 4.47, 4.47, 4.92, 4.92, 4.92, 5.36, 5.36, 5.36, 5.36, 8.49, 8.49, 8.49, 8.49, 8.49, 8.49, 8.94, 8.94, 8.94, 8.94, 8.49, 8.49, 8.05, 8.05, 8.05, 7.6, 7.6, 7.6, 7.15, 7.15, 7.15, 7.15, 7.15, 7.6, 8.05, 8.05, 8.05, 7.6, 7.15, 6.71, 6.71, 6.71, 6.71, 6.71, 6.71, 6.71, 6.71, 6.71, 6.71, 6.71, 6.71, 6.71, 6.71, 6.71, 6.71, 6.26, 6.26, 6.26, 6.26, 6.26, 6.26, 6.26, 6.26, 6.26, 6.26, 6.26, 5.81, 5.36, 5.36, 5.36, 5.81, 5.36, 5.36, 5.36, 5.36, 5.36, 5.36, 5.36, 5.36, 5.36, 5.36, 5.36, 5.36, 5.36, 5.36, 5.36, 5.36, 5.36, 4.92, 4.92, 4.92, 4.92, 4.92, 4.92, 4.92, 4.47, 4.47, 4.47, 4.47, 4.47, 4.47, 4.92, 4.92, 4.92, 4.92, 5.36, 5.36, 5.36, 8.49, 8.49, 8.49, 8.49, 8.49, 8.49, 8.49, 8.94, 8.94, 8.49, 8.49, 8.49, 8.05, 8.05, 8.05, 7.6, 7.6, 7.6, 7.15, 7.15, 7.15, 7.15, 7.6, 7.6, 8.05, 7.6, 7.6, 7.15, 6.71, 6.71, 6.71, 6.71, 6.71, 6.71, 6.71, 6.71, 6.71, 6.71, 6.71, 6.71, 6.71, 6.71, 6.71, 6.71, 6.26, 6.26, 6.26, 5.81, 5.81, 5.81, 5.81, 6.26, 6.26, 6.26, 6.26, 5.81, 5.81, 5.36, 5.36, 5.36, 5.36, 5.36, 5.36, 5.36, 5.36, 5.36, 5.36, 5.36, 5.36, 5.36, 5.36, 5.36, 5.36, 5.36, 5.36, 5.36, 5.36, 4.92, 4.92, 4.92, 4.92, 4.92, 4.92, 4.92, 4.92, 4.92, 4.92, 4.47, 4.47, 4.47, 4.47, 4.92, 4.92, 4.92, 4.92, 4.92, 4.92, 4.92, 8.49, 8.49, 8.49, 8.49, 8.49, 8.49, 8.49, 8.49, 8.49, 8.49, 8.49, 8.49, 8.05, 8.05, 8.05, 7.6, 7.6, 7.6, 7.15, 7.15, 7.15, 7.15, 7.6, 7.6, 7.6, 7.6, 7.15, 6.71, 6.26, 6.26, 6.71, 6.71, 6.71, 6.71, 6.71, 6.71, 6.71, 6.71, 6.71, 6.71, 6.71, 6.71, 6.71, 6.26, 6.26, 6.26, 6.26, 5.81, 5.81, 5.81, 6.26, 6.26, 6.26, 6.26, 6.26, 5.81, 5.81, 5.36, 5.36, 5.36, 5.36, 5.36, 5.36, 5.36, 5.36, 5.36, 5.36, 5.36, 5.36, 5.36, 5.36, 5.36, 5.36, 5.36, 5.36, 5.36, 4.92, 4.92, 4.92, 4.92, 4.92, 4.92, 4.92, 4.92, 4.92, 4.92, 4.92, 4.92, 4.47, 4.47, 4.92, 4.92, 4.92, 4.92, 4.92, 4.92, 4.92, 4.92, 8.49, 8.49, 8.05, 8.49, 8.49, 8.49, 8.49, 8.49, 8.49, 8.49, 8.49, 8.05, 8.05, 8.05, 8.05, 7.6, 7.6, 7.6, 7.15, 7.15, 7.15, 7.6, 7.6, 7.6, 7.6, 7.15, 6.71, 6.26, 6.26, 6.26, 6.26, 6.71, 6.71, 6.71, 6.71, 6.71, 6.71, 6.71, 6.71, 6.71, 6.71, 6.71, 6.26, 6.26, 6.26, 6.26, 5.81, 5.81, 5.81, 5.81, 6.26, 6.26, 6.26, 6.26, 6.26, 5.81, 5.81, 5.81, 5.36, 5.36, 5.36, 5.36, 5.36, 5.36, 5.36, 5.36, 5.36, 5.36, 5.36, 5.36, 5.36, 5.36, 5.36, 5.36, 5.36, 5.36, 4.92, 4.92, 4.92, 4.92, 4.92, 4.92, 4.92, 4.92, 4.92, 4.92, 4.92, 4.92, 4.92, 4.47, 4.92, 4.92, 4.92, 4.92, 4.92, 4.92, 4.92, 4.92, 8.49, 8.05, 8.05, 8.05, 8.49, 8.49, 8.49, 8.49, 8.49, 8.49, 8.49, 8.05, 8.05, 8.05, 8.05, 7.6, 7.6, 7.6, 7.15, 7.15, 7.6, 7.6, 7.6, 7.6, 7.15, 6.71, 6.26, 6.26, 6.26, 6.26, 6.71, 6.71, 6.71, 6.71, 6.71, 6.71, 6.71, 6.71, 6.71, 6.71, 6.71, 6.26, 6.26, 6.26, 5.81, 5.81, 5.81, 5.81, 5.81, 5.81, 6.26, 6.26, 6.26, 6.26, 5.81, 5.81, 5.81, 5.81, 5.81, 5.36, 5.36, 5.36, 5.36, 5.36, 5.36, 5.36, 5.36, 5.36, 5.36, 5.36, 5.36, 5.36, 5.36, 5.36, 5.36, 5.36, 4.92, 4.92, 4.92, 4.92, 4.92, 4.92, 4.92, 4.92, 4.92, 4.92, 4.92, 4.92, 4.92, 4.92, 4.92, 4.92, 4.92, 4.92, 4.92, 4.92, 4.92, 4.92, 8.49, 8.05, 8.05, 8.05, 8.05, 8.49, 8.49, 8.49, 8.49, 8.49, 8.05, 8.05, 8.05, 8.05, 8.05, 7.6, 7.6, 7.6, 7.6, 7.6, 7.6, 7.6, 7.15, 7.15, 7.15, 6.71, 6.26, 6.26, 6.26, 6.71, 6.71, 6.71, 6.71, 6.71, 6.71, 6.71, 6.26, 6.26, 6.26, 6.26, 6.26, 6.26, 6.26, 5.81, 5.81, 5.81, 5.81, 5.81, 5.81, 6.26, 6.26, 6.26, 6.26, 6.26, 5.81, 5.81, 5.81, 5.81, 5.81, 5.36, 5.36, 5.36, 5.36, 5.36, 5.36, 5.36, 5.36, 5.36, 4.92, 5.36, 5.36, 5.36, 5.36, 5.36, 5.36, 5.36, 4.92, 4.92, 4.92, 4.92, 4.92, 4.92, 4.92, 4.92, 4.92, 4.92, 4.92, 4.92, 4.92, 4.92, 4.92, 4.47, 4.92, 4.92, 4.92, 4.92, 4.92, 4.92, 8.05, 8.05, 8.05, 8.05, 8.05, 8.49, 8.49, 8.49, 8.05, 8.05, 8.05, 8.05, 8.05, 8.05, 8.05, 7.6, 7.6, 7.6, 7.6, 7.6, 7.6, 7.15, 7.15, 7.15, 6.71, 6.71, 6.26, 6.26, 6.71, 6.71, 6.71, 6.71, 6.71, 6.71, 6.71, 6.26, 6.26, 6.26, 6.26, 6.26, 6.26, 6.26, 5.81, 5.81, 5.81, 5.81, 5.81, 5.81, 5.81, 6.26, 6.26, 6.26, 6.26, 6.26, 5.81, 5.81, 5.81, 5.81, 5.36, 5.36, 5.36, 5.36, 5.36, 5.36, 5.36, 5.36, 5.36, 5.36, 4.92, 5.36, 5.36, 5.36, 5.36, 5.36, 5.36, 4.92, 4.92, 4.92, 4.92, 4.92, 4.92, 4.92, 4.92, 4.92, 4.92, 4.92, 5.36, 5.36, 4.92, 4.92, 4.92, 4.92, 4.92, 4.92, 4.92, 4.92, 4.92, 4.92, 8.05, 8.05, 8.05, 8.05, 8.05, 8.05, 8.05, 8.05, 8.05, 8.05, 8.05, 8.05, 8.05, 8.05, 8.05, 7.6, 7.6, 7.6, 7.6, 7.6, 7.15, 7.15, 7.15, 7.15, 6.71, 6.26, 6.26, 6.71, 6.71, 6.71, 6.71, 6.71, 6.71, 6.71, 6.26, 6.26, 6.26, 6.26, 6.26, 6.26, 6.26, 5.81, 5.81, 5.81, 5.81, 5.81, 5.81, 5.81, 5.81, 6.26, 6.26, 6.26, 6.26, 5.81, 5.81, 5.81, 5.81, 5.36, 5.36, 5.36, 5.36, 5.36, 5.36, 5.36, 5.36, 5.36, 5.36, 5.36, 5.36, 5.36, 5.36, 5.36, 5.36, 5.36, 5.36, 4.92, 4.92, 4.92, 4.92, 4.92, 4.47, 4.47, 4.92, 4.92, 4.92, 4.92, 5.36, 5.36, 5.36, 4.92, 4.92, 4.92, 4.92, 4.92, 4.92, 4.92, 4.92, 4.92, 8.05, 8.05, 8.05, 8.05, 8.05, 8.05, 8.05, 8.05, 8.05, 8.05, 8.05, 8.05, 8.05, 8.05, 8.05, 7.6, 7.6, 7.6, 7.6, 7.15, 7.15, 7.15, 7.15, 6.71, 6.71, 6.26, 6.26, 6.71, 6.71, 6.71, 6.26, 6.71, 6.71, 6.71, 6.26, 6.26, 6.26, 6.26, 6.26, 6.26, 6.26, 5.81, 5.81, 5.81, 5.81, 5.81, 5.81, 5.81, 5.81, 6.26, 6.26, 6.26, 6.26, 5.81, 5.81, 5.81, 5.81, 5.36, 5.36, 5.36, 5.36, 5.36, 5.36, 5.36, 5.36, 5.36, 5.36, 5.36, 5.36, 5.36, 5.36, 5.36, 5.36, 5.36, 4.92, 4.92, 4.92, 4.47, 4.47, 4.47, 4.47, 4.47, 4.47, 4.47, 4.92, 4.92, 4.92, 4.92, 4.92, 5.36, 5.36, 4.92, 4.92, 4.92, 4.92, 4.92, 4.92, 4.92, 8.05, 8.05, 8.05, 8.05, 8.05, 8.05, 8.05, 8.05, 7.6, 7.6, 7.6, 8.05, 8.05, 8.05, 8.05, 8.05, 7.6, 7.6, 7.6, 7.15, 7.15, 7.15, 7.15, 6.71, 6.26, 6.26, 6.26, 6.71, 6.71, 6.26, 6.26, 6.26, 6.26, 6.26, 6.26, 6.26, 6.26, 6.26, 6.26, 6.26, 6.26, 5.81, 5.81, 5.81, 5.81, 5.81, 5.81, 5.81, 5.81, 5.81, 6.26, 6.26, 5.81, 5.81, 5.81, 5.81, 5.81, 5.36, 5.36, 5.36, 5.36, 5.36, 5.36, 5.36, 5.36, 4.92, 4.92, 4.92, 4.92, 4.92, 5.36, 4.92, 4.92, 4.92, 4.92, 4.47, 4.47, 4.47, 4.47, 4.47, 4.47, 4.47, 4.47, 4.47, 4.92, 4.92, 4.92, 4.92, 4.92, 4.92, 5.36, 4.92, 4.92, 4.92, 4.92, 4.92, 4.47, 4.47, 8.05, 8.05, 8.05, 8.05, 8.05, 8.05, 8.05, 7.6, 7.6, 7.6, 7.6, 7.6, 8.05, 8.05, 8.05, 8.05, 7.6, 7.6, 7.6, 7.15, 7.15, 7.15, 6.71, 6.71, 6.26, 6.26, 6.26, 6.71, 6.71, 6.26, 6.26, 6.26, 6.26, 6.26, 6.26, 6.26, 6.26, 6.26, 6.26, 5.81, 5.81, 5.81, 5.81, 5.81, 5.81, 5.81, 5.81, 5.81, 5.81, 5.81, 6.26, 6.26, 5.81, 5.81, 5.81, 5.81, 5.81, 5.81, 5.36, 5.36, 5.36, 5.36, 5.36, 5.36, 5.36, 4.92, 4.92, 4.92, 4.92, 4.92, 4.92, 4.92, 4.92, 4.92, 4.47, 4.47, 4.47, 4.47, 4.47, 4.47, 4.47, 4.47, 4.47, 4.47, 4.47, 4.47, 4.92, 4.92, 4.92, 4.92, 4.92, 4.92, 4.92, 4.92, 4.92, 4.92, 4.47, 4.47, 8.05, 8.05, 8.05, 7.6, 7.6, 8.05, 8.05, 7.6, 7.6, 7.6, 7.6, 7.6, 8.05, 8.05, 8.05, 8.05, 7.6, 7.6, 7.6, 7.15, 7.15, 7.15, 6.71, 6.71, 6.26, 6.26, 6.26, 6.71, 6.71, 6.26, 6.26, 6.26, 6.26, 6.26, 6.26, 6.26, 6.26, 5.81, 5.81, 5.81, 5.81, 5.81, 5.81, 5.81, 5.81, 5.81, 5.81, 5.81, 5.81, 5.81, 5.81, 5.81, 5.81, 5.81, 5.81, 5.81, 5.81, 5.36, 5.36, 5.36, 5.36, 5.36, 5.36, 5.36, 4.92, 4.92, 4.92, 4.92, 4.92, 4.92, 4.92, 4.92, 4.92, 4.92, 4.47, 4.47, 4.47, 4.92, 4.47, 4.47, 4.47, 4.47, 4.47, 4.47, 4.47, 4.47, 4.47, 4.92, 4.92, 4.92, 4.92, 4.92, 4.92, 4.92, 4.92, 4.92, 4.47, 4.47, 8.05, 8.05, 7.6, 7.6, 7.6, 7.6, 7.6, 7.6, 7.15, 7.15, 7.6, 7.6, 7.6, 8.05, 8.05, 8.05, 7.6, 7.6, 7.15, 7.15, 7.15, 6.71, 6.71, 6.26, 6.26, 6.26, 6.26, 6.71, 6.26, 6.26, 6.26, 6.26, 6.26, 6.26, 6.26, 5.81, 5.81, 5.81, 5.81, 5.81, 5.81, 5.81, 5.81, 5.81, 5.81, 5.81, 5.81, 5.81, 5.81, 5.81, 5.81, 5.81, 5.81, 5.81, 5.81, 5.81, 5.36, 5.36, 5.36, 5.36, 5.36, 5.36, 5.36, 5.36, 4.92, 4.92, 4.92, 4.92, 4.92, 4.92, 4.92, 4.92, 4.92, 4.47, 4.47, 4.47, 4.47, 4.92, 4.92, 4.47, 4.47, 4.47, 4.47, 4.47, 4.47, 4.47, 4.47, 4.47, 4.92, 4.92, 4.92, 4.47, 4.92, 4.92, 4.92, 4.92, 4.92, 4.92, 8.05, 8.05, 7.6, 7.6, 7.6, 7.6, 7.6, 7.6, 7.15, 7.15, 7.15, 7.6, 7.6, 8.05, 8.05, 8.05, 7.6, 7.6, 7.15, 7.15, 6.71, 6.71, 6.71, 6.26, 6.26, 6.26, 6.26, 6.71, 6.26, 6.26, 6.26, 6.26, 6.26, 6.26, 5.81, 5.81, 5.81, 5.81, 5.81, 5.81, 5.81, 5.81, 5.81, 5.81, 5.36, 5.81, 5.81, 5.81, 5.81, 5.81, 5.81, 5.81, 5.81, 5.81, 5.81, 5.36, 5.36, 5.36, 5.36, 5.36, 5.36, 4.92, 4.92, 4.92, 4.92, 4.92, 4.92, 4.92, 4.92, 4.92, 4.92, 4.92, 4.47, 4.47, 4.47, 4.47, 4.47, 4.47, 4.47, 4.47, 4.47, 4.47, 4.47, 4.47, 4.47, 4.47, 4.47, 4.47, 4.47, 4.47, 4.47, 4.47, 4.92, 4.92, 4.92, 4.92, 4.47, 4.47, 8.05, 8.05, 7.6, 7.6, 7.6, 7.6, 7.6, 7.6, 7.15, 7.15, 7.15, 7.6, 7.6, 7.6, 8.05, 7.6, 7.6, 7.6, 7.15, 7.15, 6.71, 6.71, 6.71, 6.26, 6.26, 6.26, 6.26, 6.26, 6.26, 6.26, 6.26, 6.26, 5.81, 5.81, 5.81, 5.81, 5.81, 5.81, 5.81, 5.81, 5.81, 5.81, 5.36, 5.36, 5.36, 5.81, 5.81, 5.81, 5.81, 5.81, 5.81, 5.81, 5.81, 5.81, 5.81, 5.36, 5.36, 5.36, 5.36, 5.36, 5.36, 4.92, 4.92, 4.92, 4.92, 4.92, 4.92, 4.92, 4.92, 4.92, 4.47, 4.47, 4.47, 4.47, 4.47, 4.47, 4.47, 4.02, 4.02, 4.47, 4.47, 4.47, 4.47, 4.47, 4.47, 4.47, 4.47, 4.47, 4.47, 4.47, 4.47, 4.47, 4.47, 4.47, 4.47, 4.47, 4.47, 4.47, 7.6, 7.6, 7.6, 7.6, 7.6, 7.6, 7.6, 7.15, 7.15, 7.15, 6.71, 7.15, 7.6, 7.6, 8.05, 7.6, 7.6, 7.6, 7.15, 6.71, 6.71, 6.71, 6.26, 6.26, 6.26, 6.26, 6.26, 6.26, 6.26, 6.26, 5.81, 5.81, 5.81, 5.81, 5.81, 5.81, 5.81, 5.81, 5.81, 5.81, 5.81, 5.36, 5.36, 5.36, 5.36, 5.81, 5.81, 5.81, 5.81, 5.81, 5.81, 5.81, 5.81, 5.81, 5.36, 5.36, 5.36, 5.36, 5.36, 5.36, 4.92, 4.92, 4.92, 4.92, 4.92, 4.92, 4.92, 4.92, 4.92, 4.47, 4.47, 4.47, 4.47, 4.47, 4.47, 4.47, 4.47, 4.02, 4.02, 4.47, 4.47, 4.47, 4.47, 4.47, 4.47, 4.47, 4.47, 4.47, 4.02, 4.02, 4.47, 4.47, 4.47, 4.47, 4.47, 4.47, 4.47, 4.47, 7.6, 7.6, 7.6, 7.6, 7.6, 7.6, 7.6, 7.15, 7.15, 6.71, 6.71, 7.15, 7.6, 7.6, 7.6, 7.6, 7.6, 7.15, 7.15, 6.71, 6.71, 6.26, 6.26, 6.26, 6.26, 6.26, 6.26, 6.26, 6.26, 6.26, 5.81, 5.81, 5.81, 5.81, 5.81, 5.81, 5.81, 5.81, 5.81, 5.81, 5.36, 5.36, 5.36, 5.36, 5.36, 5.36, 5.81, 5.81, 5.81, 5.81, 5.81, 5.81, 5.36, 5.36, 5.36, 5.36, 5.36, 5.36, 5.36, 4.92, 4.92, 4.92, 4.92, 4.92, 4.92, 4.92, 4.92, 4.47, 4.47, 4.47, 4.47, 4.47, 4.47, 4.47, 4.47, 4.47, 4.02, 4.47, 4.02, 4.02, 4.47, 4.47, 4.02, 4.02, 4.02, 4.02, 4.02, 4.02, 4.02, 4.02, 4.02, 4.47, 4.47, 4.47, 4.47, 4.47, 4.47, 4.47, 7.6, 7.6, 7.6, 7.6, 7.6, 7.6, 7.15, 7.15, 6.71, 6.71, 6.71, 6.71, 7.15, 7.6, 7.6, 7.6, 7.6, 7.15, 7.15, 6.71, 6.26, 6.26, 6.26, 6.26, 5.81, 6.26, 6.26, 6.26, 6.26, 5.81, 5.81, 5.81, 5.81, 5.81, 5.81, 5.81, 5.81, 5.81, 5.81, 5.36, 5.36, 5.36, 5.36, 5.36, 5.36, 5.36, 5.36, 5.36, 5.36, 5.36, 5.36, 5.36, 5.36, 5.36, 5.36, 5.36, 5.36, 5.36, 5.36, 4.92, 4.92, 4.92, 4.92, 4.92, 4.92, 4.92, 4.92, 4.92, 4.47, 4.47, 4.47, 4.47, 4.47, 4.02, 4.02, 4.47, 4.47, 4.02, 4.02, 4.02, 4.02, 4.02, 4.02, 4.02, 4.02, 4.02, 4.02, 4.02, 4.02, 4.02, 4.02, 4.02, 4.02, 4.47, 4.47, 4.47, 4.47, 4.47, 7.6, 7.6, 7.6, 7.6, 7.6, 7.15, 7.15, 7.15, 6.71, 6.71, 6.71, 6.71, 7.15, 7.15, 7.6, 7.6, 7.6, 7.15, 6.71, 6.26, 6.26, 6.26, 6.26, 6.26, 5.81, 6.26, 6.26, 6.26, 6.26, 5.81, 5.36, 5.36, 5.81, 5.81, 5.81, 5.81, 5.81, 5.81, 5.36, 5.36, 5.36, 5.36, 5.36, 5.36, 5.36, 5.36, 5.36, 5.36, 5.36, 5.36, 5.36, 5.36, 5.36, 5.36, 5.36, 5.36, 4.92, 5.36, 4.92, 4.92, 4.92, 4.92, 4.92, 4.92, 4.92, 4.92, 4.92, 4.92, 4.47, 4.47, 4.47, 4.47, 4.47, 4.47, 4.02, 4.02, 4.02, 4.02, 4.02, 4.02, 4.02, 4.02, 4.02, 4.02, 4.02, 4.02, 4.02, 4.02, 4.02, 4.02, 4.02, 4.02, 4.02, 4.02, 4.02, 4.47, 4.47, 4.47, 7.6, 7.6, 7.6, 7.6, 7.15, 7.15, 7.15, 6.71, 6.71, 6.71, 6.26, 6.71, 6.71, 7.15, 7.6, 7.6, 7.15, 7.15, 6.71, 6.26, 6.26, 6.26, 6.26, 5.81, 5.81, 5.81, 6.26, 6.26, 5.81, 5.81, 5.36, 5.36, 5.81, 5.81, 5.81, 5.81, 5.81, 5.36, 5.36, 5.36, 5.36, 5.36, 5.36, 5.36, 5.36, 5.36, 5.36, 5.36, 5.36, 5.36, 5.36, 5.36, 5.36, 5.36, 5.36, 4.92, 4.92, 4.92, 4.92, 4.92, 4.92, 4.92, 4.92, 4.92, 4.92, 4.92, 4.92, 4.47, 4.47, 4.47, 4.47, 4.47, 4.47, 4.47, 4.02, 4.02, 4.02, 4.02, 4.02, 4.02, 4.02, 3.58, 3.58, 3.58, 4.02, 3.58, 3.58, 4.02, 4.02, 4.02, 4.02, 4.02, 4.02, 4.02, 4.02, 4.47, 4.47, 4.47, 7.6, 7.6, 7.6, 7.6, 7.15, 7.15, 7.15, 6.71, 6.71, 6.26, 6.26, 6.71, 6.71, 7.15, 7.15, 7.6, 7.15, 6.71, 6.71, 6.26, 6.26, 6.26, 5.81, 5.81, 5.81, 5.81, 6.26, 6.26, 5.81, 5.36, 5.36, 5.36, 5.81, 5.81, 5.81, 5.36, 5.36, 5.36, 5.36, 5.36, 5.36, 5.36, 5.36, 5.36, 5.36, 5.36, 5.36, 5.36, 5.36, 5.36, 5.36, 5.36, 5.36, 5.36, 4.92, 4.92, 4.92, 4.92, 4.92, 4.92, 4.92, 4.92, 4.92, 4.47, 4.47, 4.47, 4.47, 4.47, 4.47, 4.47, 4.47, 4.47, 4.47, 4.47, 4.02, 4.02, 4.02, 4.02, 4.02, 4.02, 3.58, 3.58, 3.58, 3.58, 3.58, 3.58, 3.58, 3.58, 4.02, 4.02, 4.02, 4.02, 4.02, 4.02, 4.02, 4.47, 4.47, 4.47, 7.6, 7.6, 7.6, 7.15, 7.15, 7.15, 7.15, 6.71, 6.71, 6.26, 6.26, 6.26, 6.71, 6.71, 7.15, 7.15, 7.15, 6.71, 6.26, 6.26, 6.26, 5.81, 5.81, 5.81, 5.81, 5.81, 6.26, 6.26, 5.81, 5.36, 5.36, 5.36, 5.36, 5.81, 5.36, 5.36, 5.36, 5.36, 5.36, 5.36, 4.92, 4.92, 5.36, 5.36, 5.36, 5.36, 5.36, 5.36, 5.36, 5.36, 5.36, 5.36, 5.36, 5.36, 4.92, 4.92, 4.92, 4.92, 4.92, 4.47, 4.47, 4.47, 4.47, 4.47, 4.47, 4.47, 4.47, 4.47, 4.47, 4.47, 4.47, 4.47, 4.47, 4.47, 4.02, 4.02, 4.02, 4.02, 4.02, 3.58, 4.02, 3.58, 3.58, 3.58, 3.58, 3.58, 3.58, 3.58, 4.02, 4.02, 4.02, 4.02, 4.02, 4.47, 4.47, 4.47, 4.47, 4.47, 7.6, 7.6, 7.6, 7.15, 7.15, 7.15, 6.71, 6.71, 6.26, 6.26, 6.26, 6.26, 6.71, 6.71, 7.15, 7.15, 7.15, 6.71, 6.26, 6.26, 5.81, 5.81, 5.81, 5.81, 5.81, 5.81, 5.81, 5.81, 5.81, 5.36, 5.36, 5.36, 5.36, 5.36, 5.36, 5.36, 5.36, 5.36, 5.36, 4.92, 4.92, 4.92, 4.92, 5.36, 5.36, 5.36, 5.36, 5.36, 5.36, 5.36, 5.36, 5.36, 5.36, 4.92, 4.92, 4.92, 4.92, 4.92, 4.47, 4.47, 4.47, 4.47, 4.47, 4.47, 4.47, 4.47, 4.47, 4.47, 4.47, 4.47, 4.47, 4.47, 4.47, 4.02, 4.02, 4.02, 4.02, 4.02, 4.02, 3.58, 3.58, 3.58, 3.58, 3.58, 3.58, 3.58, 3.58, 4.02, 4.02, 4.02, 4.02, 4.02, 4.47, 4.47, 4.47, 4.47, 4.47, 4.47, 7.6, 7.6, 7.6, 7.15, 7.15, 7.15, 6.71, 6.71, 6.26, 6.26, 6.26, 6.26, 6.26, 6.71, 7.15, 7.15, 7.15, 6.71, 6.26, 6.26, 5.81, 5.81, 5.81, 5.81, 5.81, 5.81, 5.81, 5.81, 5.81, 5.36, 5.36, 5.36, 5.36, 5.36, 5.36, 5.36, 5.36, 5.36, 4.92, 4.92, 4.92, 4.92, 4.92, 4.92, 5.36, 5.36, 5.36, 4.92, 4.92, 4.92, 4.92, 4.92, 4.92, 4.92, 4.92, 4.92, 4.92, 4.47, 4.47, 4.47, 4.47, 4.47, 4.47, 4.47, 4.47, 4.47, 4.47, 4.47, 4.47, 4.47, 4.02, 4.02, 4.02, 4.02, 4.02, 4.02, 4.02, 4.02, 4.02, 4.02, 3.58, 3.58, 3.58, 3.58, 3.58, 3.58, 3.58, 4.02, 4.02, 4.02, 4.02, 4.02, 4.47, 4.47, 4.47, 4.47, 4.47, 4.47, 7.6, 7.6, 7.6, 7.15, 7.15, 7.15, 6.71, 6.71, 6.26, 6.26, 6.26, 6.26, 6.26, 6.71, 6.71, 7.15, 7.15, 6.71, 6.26, 5.81, 5.81, 5.81, 5.81, 5.81, 5.81, 5.81, 5.81, 5.81, 5.81, 5.36, 5.36, 4.92, 5.36, 5.36, 5.36, 5.36, 5.36, 4.92, 4.92, 4.92, 4.92, 4.92, 4.92, 4.92, 4.92, 4.92, 4.92, 4.92, 4.92, 4.92, 4.92, 4.92, 4.92, 4.92, 4.92, 4.92, 4.47, 4.47, 4.47, 4.47, 4.47, 4.47, 4.47, 4.47, 4.47, 4.47, 4.47, 4.47, 4.02, 4.02, 4.02, 4.02, 4.02, 4.02, 4.02, 4.02, 4.02, 4.02, 4.02, 4.02, 3.58, 3.58, 3.58, 3.58, 3.58, 3.58, 3.58, 4.02, 4.02, 4.02, 4.02, 4.02, 4.02, 4.47, 4.47, 4.47, 4.47, 4.47, 7.6, 7.6, 7.6, 7.15, 7.15, 7.15, 6.71, 6.71, 6.26, 6.26, 6.26, 6.26, 6.26, 6.71, 6.71, 6.71, 6.71, 6.71, 6.26, 5.81, 5.81, 5.81, 5.81, 5.81, 5.36, 5.81, 5.81, 5.81, 5.36, 5.36, 4.92, 4.92, 5.36, 5.36, 5.36, 5.36, 5.36, 4.92, 4.92, 4.92, 4.92, 4.92, 4.92, 4.92, 4.92, 4.92, 4.92, 4.92, 4.92, 4.92, 4.92, 4.92, 4.92, 4.92, 4.92, 4.47, 4.47, 4.47, 4.47, 4.47, 4.47, 4.47, 4.47, 4.47, 4.47, 4.47, 4.47, 4.02, 4.02, 4.02, 4.02, 4.02, 4.02, 4.02, 4.02, 4.02, 4.02, 4.02, 4.02, 4.02, 4.02, 3.58, 3.58, 3.58, 3.58, 3.58, 3.58, 3.58, 4.02, 4.02, 4.02, 4.02, 4.02, 4.47, 4.47, 4.47, 4.47, 4.47, 7.6, 7.6, 7.6, 7.15, 7.15, 7.15, 6.71, 6.71, 6.26, 6.26, 6.26, 6.26, 6.26, 6.26, 6.71, 6.71, 6.71, 6.71, 6.26, 5.81, 5.81, 5.81, 5.81, 5.36, 5.36, 5.36, 5.81, 5.81, 5.36, 5.36, 4.92, 4.92, 4.92, 5.36, 5.36, 5.36, 5.36, 4.92, 4.92, 4.92, 4.92, 4.92, 4.92, 4.92, 4.92, 4.92, 4.92, 4.92, 4.92, 4.92, 4.92, 4.92, 4.92, 4.92, 4.47, 4.47, 4.47, 4.47, 4.47, 4.47, 4.47, 4.47, 4.47, 4.47, 4.02, 4.02, 4.02, 4.02, 4.02, 4.02, 4.02, 4.02, 4.02, 4.02, 4.02, 4.02, 4.02, 4.02, 4.02, 4.02, 4.02, 3.58, 3.58, 3.58, 3.58, 3.58, 3.58, 3.58, 4.02, 4.02, 4.02, 4.02, 4.47, 4.47, 4.47, 4.47, 4.47, 4.47, 7.6, 7.6, 7.6, 7.15, 7.15, 7.15, 6.71, 6.71, 6.26, 6.26, 6.26, 6.26, 6.26, 6.26, 6.71, 6.71, 6.71, 6.26, 6.26, 5.81, 5.81, 5.81, 5.81, 5.36, 5.36, 5.36, 5.36, 5.36, 5.36, 5.36, 4.92, 4.92, 4.92, 5.36, 5.36, 5.36, 5.36, 4.92, 4.92, 4.92, 4.92, 4.92, 4.92, 4.92, 4.92, 4.92, 4.92, 4.92, 4.92, 4.92, 4.92, 4.92, 4.92, 4.47, 4.47, 4.47, 4.47, 4.47, 4.47, 4.47, 4.47, 4.47, 4.02, 4.02, 4.02, 4.02, 4.02, 4.02, 4.02, 4.02, 3.58, 3.58, 4.02, 4.02, 4.02, 4.02, 4.02, 4.02, 4.02, 4.02, 4.02, 4.02, 4.02, 3.58, 3.58, 3.58, 3.58, 3.58, 3.58, 4.02, 4.02, 4.02, 4.02, 4.47, 4.47, 4.47, 4.47, 4.47, 7.6, 7.6, 7.6, 7.15, 7.15, 7.15, 6.71, 6.71, 6.26, 6.26, 6.26, 6.26, 6.26, 6.26, 6.26, 6.71, 6.71, 6.26, 6.26, 5.81, 5.81, 5.81, 5.36, 5.36, 5.36, 5.36, 5.36, 5.36, 5.36, 5.36, 4.92, 4.92, 4.92, 4.92, 5.36, 5.36, 5.36, 4.92, 4.92, 4.47, 4.47, 4.92, 4.92, 4.92, 4.92, 4.92, 4.92, 4.47, 4.92, 4.92, 4.92, 4.92, 4.47, 4.47, 4.47, 4.47, 4.47, 4.02, 4.02, 4.02, 4.02, 4.02, 4.02, 4.02, 4.02, 4.02, 3.58, 3.58, 3.58, 3.58, 3.58, 3.58, 3.58, 4.02, 4.02, 4.02, 4.02, 4.02, 4.02, 4.02, 4.02, 4.02, 4.02, 4.02, 3.58, 3.58, 3.58, 3.58, 3.58, 4.02, 4.02, 4.02, 4.47, 4.47, 4.47, 4.47, 4.47, 4.47, 7.6, 7.6, 7.6, 7.15, 7.15, 7.15, 6.71, 6.71, 6.26, 6.26, 6.26, 6.26, 6.26, 6.26, 6.26, 6.26, 6.26, 6.26, 6.26, 5.81, 5.81, 5.36, 5.36, 5.36, 5.36, 5.36, 5.36, 5.36, 5.36, 5.36, 4.92, 4.92, 4.92, 4.92, 5.36, 5.36, 4.92, 4.92, 4.92, 4.47, 4.47, 4.92, 4.92, 4.92, 4.92, 4.92, 4.47, 4.47, 4.92, 4.92, 4.92, 4.92, 4.47, 4.47, 4.47, 4.47, 4.02, 4.02, 4.02, 4.02, 4.02, 4.02, 4.02, 4.02, 3.58, 3.58, 3.58, 3.58, 3.58, 3.58, 3.58, 3.58, 3.58, 3.58, 4.02, 4.02, 4.02, 4.02, 4.02, 4.02, 4.02, 4.02, 4.02, 4.02, 4.02, 4.02, 3.58, 3.58, 3.58, 4.02, 4.02, 4.02, 4.47, 4.47, 4.47, 4.47, 4.47, 4.47, 7.6, 7.6, 7.6, 7.15, 7.15, 7.15, 6.71, 6.71, 6.26, 6.26, 6.26, 6.26, 6.26, 6.26, 6.26, 6.26, 6.26, 6.26, 5.81, 5.81, 5.36, 5.36, 5.36, 5.36, 5.36, 5.36, 5.36, 5.36, 5.36, 4.92, 4.92, 4.92, 4.92, 4.92, 4.92, 5.36, 4.92, 4.92, 4.92, 4.47, 4.47, 4.47, 4.92, 4.92, 4.92, 4.47, 4.47, 4.47, 4.47, 4.92, 4.92, 4.47, 4.47, 4.47, 4.47, 4.02, 4.02, 4.02, 4.02, 4.02, 4.02, 4.02, 3.58, 3.58, 3.58, 3.58, 3.58, 3.58, 3.58, 3.13, 3.58, 3.58, 3.58, 3.58, 3.58, 4.02, 4.02, 4.02, 4.02, 4.02, 4.02, 4.02, 4.02, 4.02, 4.02, 4.02, 4.02, 4.02, 3.58, 4.02, 4.02, 4.02, 4.02, 4.47, 4.47, 4.47, 4.47, 4.47, 7.6, 7.6, 7.6, 7.6, 7.15, 7.15, 6.71, 6.71, 6.26, 6.26, 6.26, 6.26, 6.26, 6.26, 6.26, 6.26, 6.26, 6.26, 5.81, 5.81, 5.81, 5.36, 5.36, 5.36, 5.36, 5.36, 5.36, 5.36, 5.36, 4.92, 4.92, 4.47, 4.47, 4.92, 4.92, 4.92, 4.92, 4.92, 4.92, 4.47, 4.47, 4.47, 4.92, 4.92, 4.92, 4.47, 4.47, 4.47, 4.47, 4.47, 4.47, 4.47, 4.47, 4.47, 4.47, 4.02, 4.02, 4.02, 4.02, 4.02, 3.58, 3.58, 3.58, 3.58, 3.58, 3.58, 3.58, 3.13, 3.13, 3.13, 3.13, 3.58, 3.58, 3.58, 3.58, 3.58, 4.02, 4.02, 4.02, 4.02, 4.02, 4.02, 4.02, 4.02, 4.02, 4.02, 4.02, 4.02, 4.02, 4.02, 4.02, 4.02, 4.02, 4.47, 4.47, 4.47, 4.47, 4.47, 7.6, 7.6, 7.6, 7.6, 7.15, 7.15, 6.71, 6.71, 6.26, 6.26, 6.26, 6.26, 5.81, 6.26, 6.26, 6.26, 6.26, 5.81, 5.81, 5.81, 5.36, 5.36, 5.36, 5.36, 5.36, 4.92, 4.92, 5.36, 4.92, 4.92, 4.92, 4.47, 4.47, 4.47, 4.92, 4.92, 4.92, 4.92, 4.92, 4.47, 4.47, 4.47, 4.92, 4.92, 4.92, 4.47, 4.47, 4.47, 4.47, 4.47, 4.47, 4.47, 4.47, 4.47, 4.02, 4.02, 4.02, 4.02, 3.58, 3.58, 3.58, 3.58, 3.58, 3.58, 3.58, 3.58, 3.13, 3.13, 3.13, 3.13, 3.13, 3.13, 3.58, 3.58, 3.58, 3.58, 3.58, 4.02, 4.02, 4.02, 4.02, 4.02, 4.02, 4.02, 4.02, 4.02, 4.02, 4.02, 4.02, 4.02, 4.02, 4.02, 4.02, 4.47, 4.47, 4.47, 4.47, 4.47, 7.6, 7.6, 7.6, 7.6, 7.15, 7.15, 6.71, 6.71, 6.26, 6.26, 6.26, 6.26, 5.81, 5.81, 6.26, 6.26, 5.81, 5.81, 5.81, 5.81, 5.36, 5.36, 5.36, 5.36, 4.92, 4.92, 4.92, 4.92, 4.92, 4.92, 4.92, 4.47, 4.47, 4.47, 4.47, 4.92, 4.92, 4.92, 4.92, 4.47, 4.47, 4.47, 4.92, 4.92, 4.92, 4.47, 4.47, 4.47, 4.47, 4.47, 4.47, 4.47, 4.47, 4.02, 4.02, 4.02, 4.02, 3.58, 3.58, 3.58, 3.58, 3.58, 3.58, 3.58, 3.13, 3.13, 3.13, 3.13, 3.13, 3.13, 3.13, 3.13, 3.58, 3.58, 3.58, 3.58, 3.58, 3.58, 4.02, 4.02, 4.02, 4.02, 4.02, 4.02, 4.02, 4.02, 4.02, 4.02, 4.02, 4.02, 4.02, 4.47, 4.47, 4.47, 4.47, 4.47, 4.47, 4.47, 7.6, 7.6, 7.6, 7.6, 7.15, 7.15, 6.71, 6.71, 6.26, 6.26, 6.26, 6.26, 5.81, 5.81, 5.81, 5.81, 5.81, 5.81, 5.81, 5.81, 5.36, 5.36, 5.36, 4.92, 4.92, 4.92, 4.92, 4.92, 4.92, 4.92, 4.92, 4.47, 4.47, 4.47, 4.47, 4.92, 4.92, 4.92, 4.92, 4.47, 4.47, 4.47, 4.92, 4.92, 4.92, 4.47, 4.47, 4.47, 4.47, 4.47, 4.47, 4.47, 4.47, 4.02, 4.02, 4.02, 4.02, 3.58, 3.58, 3.58, 3.13, 3.13, 3.13, 3.13, 3.13, 3.13, 3.13, 3.13, 3.13, 3.13, 3.13, 3.13, 3.58, 3.58, 3.58, 3.58, 3.58, 3.58, 3.58, 3.58, 4.02, 4.02, 4.02, 4.02, 4.02, 4.02, 4.02, 4.02, 4.02, 4.02, 4.02, 4.47, 4.47, 4.47, 4.47, 4.47, 4.47, 4.47, 7.6, 7.6, 7.6, 7.6, 7.15, 7.15, 6.71, 6.71, 6.71, 6.26, 6.26, 6.26, 5.81, 5.81, 5.81, 5.81, 5.81, 5.81, 5.81, 5.81, 5.36, 5.36, 5.36, 4.92, 4.92, 4.92, 4.92, 4.92, 4.92, 4.92, 4.92, 4.47, 4.47, 4.47, 4.47, 4.47, 4.92, 4.92, 4.92, 4.47, 4.47, 4.47, 4.92, 4.92, 4.92, 4.47, 4.47, 4.47, 4.47, 4.47, 4.47, 4.47, 4.47, 4.02, 4.02, 4.02, 3.58, 3.58, 3.58, 3.13, 3.13, 3.13, 3.13, 3.13, 3.13, 3.13, 3.13, 3.13, 3.13, 3.13, 3.13, 3.13, 3.58, 3.58, 3.58, 3.58, 3.58, 3.58, 3.58, 3.58, 4.02, 4.02, 4.02, 4.02, 4.02, 4.02, 4.02, 4.02, 4.02, 4.02, 4.02, 4.47, 4.47, 4.47, 4.47, 4.47, 4.47, 4.47, 7.6, 7.6, 7.6, 7.6, 7.15, 7.15, 7.15, 6.71, 6.71, 6.26, 6.26, 6.26, 5.81, 5.81, 5.81, 5.81, 5.81, 5.81, 5.81, 5.81, 5.36, 5.36, 5.36, 4.92, 4.92, 4.92, 4.92, 4.92, 4.92, 4.92, 4.92, 4.47, 4.47, 4.47, 4.47, 4.47, 4.47, 4.47, 4.92, 4.47, 4.47, 4.47, 4.47, 4.92, 4.92, 4.47, 4.47, 4.47, 4.47, 4.47, 4.47, 4.47, 4.02, 4.02, 4.02, 3.58, 3.58, 3.58, 3.58, 3.13, 3.13, 3.13, 3.13, 3.13, 3.13, 3.13, 3.13, 3.13, 3.13, 3.13, 3.13, 3.13, 3.58, 3.58, 3.58, 3.58, 3.58, 3.58, 3.58, 3.58, 3.58, 4.02, 4.02, 4.02, 4.02, 4.02, 4.02, 4.02, 4.02, 4.02, 4.02, 4.47, 4.47, 4.47, 4.47, 4.47, 4.47, 4.47, 7.6, 7.6, 7.6, 7.6, 7.15, 7.15, 7.15, 6.71, 6.71, 6.26, 6.26, 6.26, 5.81, 5.81, 5.81, 5.81, 5.81, 5.81, 5.81, 5.36, 5.36, 5.36, 5.36, 4.92, 4.92, 4.92, 4.92, 4.92, 4.92, 4.92, 4.92, 4.47, 4.47, 4.47, 4.02, 4.47, 4.47, 4.47, 4.47, 4.47, 4.47, 4.47, 4.47, 4.92, 4.92, 4.47, 4.47, 4.47, 4.47, 4.47, 4.47, 4.47, 4.02, 4.02, 4.02, 3.58, 3.58, 3.58, 3.13, 3.13, 3.13, 3.13, 3.13, 3.13, 3.13, 3.13, 3.13, 3.13, 3.13, 3.13, 3.13, 3.58, 3.58, 3.58, 3.58, 3.58, 3.58, 3.58, 3.58, 3.58, 3.58, 3.58, 4.02, 4.02, 4.02, 4.02, 4.02, 4.02, 4.02, 4.02, 4.47, 4.47, 4.47, 4.47, 4.47, 4.47, 4.47, 4.47, 7.6, 7.6, 7.6, 7.15, 7.15, 7.15, 7.15, 6.71, 6.71, 6.26, 6.26, 6.26, 5.81, 5.81, 5.81, 5.81, 5.81, 5.81, 5.36, 5.36, 5.36, 5.36, 5.36, 4.92, 4.92, 4.92, 4.92, 4.92, 4.92, 4.92, 4.92, 4.92, 4.47, 4.47, 4.02, 4.02, 4.47, 4.47, 4.47, 4.47, 4.47, 4.47, 4.47, 4.47, 4.47, 4.47, 4.47, 4.47, 4.47, 4.47, 4.47, 4.47, 4.02, 4.02, 3.58, 3.58, 3.58, 3.58, 3.13, 3.13, 3.13, 3.13, 3.13, 3.13, 3.13, 3.13, 3.13, 3.13, 3.13, 3.13, 3.13, 3.58, 3.58, 3.58, 3.58, 3.58, 3.58, 3.58, 3.58, 3.58, 3.58, 4.02, 4.02, 4.02, 4.02, 4.02, 4.02, 4.02, 4.02, 4.02, 4.47, 4.47, 4.47, 4.47, 4.47, 4.47, 4.47, 4.47, 7.6, 7.6, 7.6, 7.15, 7.15, 7.15, 6.71, 6.71, 6.71, 6.26, 6.26, 6.26, 5.81, 5.81, 5.81, 5.81, 5.36, 5.36, 5.36, 5.36, 5.36, 5.36, 5.36, 4.92, 4.92, 4.92, 4.92, 4.92, 4.92, 4.92, 4.92, 4.92, 4.47, 4.47, 4.02, 4.02, 4.02, 4.47, 4.47, 4.47, 4.47, 4.47, 4.47, 4.47, 4.47, 4.47, 4.47, 4.47, 4.02, 4.02, 4.02, 4.02, 4.02, 4.02, 3.58, 3.58, 3.58, 3.58, 3.13, 3.13, 3.13, 3.13, 3.13, 3.13, 3.13, 3.13, 3.13, 3.13, 3.13, 3.13, 3.13, 3.58, 3.58, 3.58, 3.58, 3.58, 3.58, 3.58, 3.58, 3.58, 3.58, 3.58, 4.02, 4.02, 4.02, 4.02, 4.02, 4.02, 4.02, 4.02, 4.02, 4.47, 4.47, 4.47, 4.47, 4.47, 4.47, 4.47, 7.6, 7.6, 7.15, 7.15, 7.15, 7.15, 6.71, 6.71, 6.71, 6.26, 6.26, 6.26, 5.81, 5.81, 5.81, 5.36, 5.36, 5.36, 5.36, 5.36, 5.36, 5.36, 5.36, 4.92, 4.92, 4.92, 4.92, 4.92, 4.92, 4.92, 4.92, 4.92, 4.47, 4.47, 4.02, 4.02, 4.02, 4.47, 4.47, 4.47, 4.47, 4.47, 4.47, 4.47, 4.47, 4.47, 4.47, 4.47, 4.02, 4.02, 4.02, 4.02, 4.02, 3.58, 3.58, 3.58, 3.58, 3.58, 3.13, 3.13, 3.13, 3.13, 3.13, 3.13, 3.13, 3.13, 3.13, 3.13, 3.13, 3.13, 3.13, 3.58, 3.58, 3.58, 3.58, 3.58, 3.58, 3.58, 3.58, 3.58, 3.58, 3.58, 3.58, 3.58, 3.58, 4.02, 4.02, 4.02, 4.02, 4.02, 4.02, 4.47, 4.47, 4.47, 4.47, 4.47, 4.47, 4.47, 7.15, 7.15, 7.15, 7.15, 7.15, 7.15, 6.71, 6.71, 6.71, 6.26, 6.26, 6.26, 5.81, 5.81, 5.81, 5.36, 5.36, 5.36, 5.36, 5.36, 5.36, 5.36, 5.36, 5.36, 4.92, 4.92, 4.92, 4.92, 4.92, 4.92, 4.92, 4.92, 4.47, 4.47, 4.47, 4.02, 4.02, 4.02, 4.47, 4.47, 4.47, 4.47, 4.47, 4.47, 4.47, 4.47, 4.47, 4.02, 4.02, 4.02, 4.02, 4.02, 4.02, 3.58, 3.58, 3.58, 3.58, 3.58, 3.13, 3.13, 3.13, 3.13, 3.13, 3.13, 3.13, 3.13, 3.13, 3.13, 3.13, 3.13, 3.58, 3.58, 3.58, 3.58, 3.58, 3.58, 3.58, 3.58, 3.58, 3.58, 3.58, 3.58, 3.58, 3.58, 3.58, 3.58, 3.58, 4.02, 4.02, 4.02, 4.02, 4.02, 4.47, 4.47, 4.47, 4.47, 4.47, 4.47, 7.15, 7.15, 7.15, 7.15, 7.15, 6.71, 6.71, 6.71, 6.26, 6.26, 6.26, 6.26, 5.81, 5.81, 5.81, 5.36, 5.36, 5.36, 5.36, 5.36, 5.36, 5.36, 5.36, 5.36, 4.92, 4.92, 4.92, 4.47, 4.92, 4.92, 4.92, 4.92, 4.92, 4.47, 4.47, 4.02, 4.02, 4.02, 4.02, 4.47, 4.47, 4.47, 4.47, 4.47, 4.47, 4.47, 4.47, 4.02, 4.02, 4.02, 4.02, 4.02, 4.02, 3.58, 3.58, 3.58, 3.58, 3.58, 3.13, 3.13, 3.13, 3.13, 3.13, 3.13, 3.13, 3.13, 3.13, 3.13, 3.13, 3.58, 3.58, 3.58, 3.58, 3.58, 3.58, 3.58, 3.58, 3.58, 3.58, 3.58, 3.58, 3.58, 3.58, 3.58, 4.02, 4.02, 4.02, 4.02, 4.02, 4.02, 4.02, 4.02, 4.47, 4.47, 4.47, 4.47, 4.47, 4.47, 7.15, 7.15, 7.15, 6.71, 6.71, 6.71, 6.71, 6.71, 6.26, 6.26, 6.26, 6.26, 5.81, 5.81, 5.81, 5.36, 5.36, 5.36, 5.36, 5.36, 5.36, 5.36, 5.36, 5.36, 4.92, 4.92, 4.92, 4.92, 4.92, 4.92, 4.92, 4.92, 4.92, 4.47, 4.47, 4.02, 4.02, 4.02, 4.02, 4.02, 4.02, 4.02, 4.02, 4.02, 4.47, 4.02, 4.02, 4.02, 4.02, 4.02, 4.02, 4.02, 4.02, 3.58, 3.58, 3.58, 3.58, 3.58, 3.58, 3.13, 3.13, 3.13, 3.13, 3.13, 3.13, 3.13, 3.13, 3.58, 3.58, 3.58, 3.58, 3.58, 3.58, 3.58, 3.58, 3.58, 3.58, 3.58, 3.58, 3.58, 3.58, 3.58, 3.58, 3.58, 4.02, 4.02, 4.02, 4.02, 4.02, 4.02, 4.02, 4.02, 4.47, 4.47, 4.47, 4.47, 4.47, 4.47, 7.15, 7.15, 7.15, 6.71, 6.71, 6.71, 6.71, 6.71, 6.26, 6.26, 6.26, 6.26, 5.81, 5.81, 5.81, 5.36, 5.36, 5.36, 5.36, 5.36, 5.36, 5.36, 5.36, 5.36, 4.92, 4.92, 4.92, 4.92, 4.92, 4.92, 4.92, 4.92, 4.92, 4.47, 4.47, 4.02, 4.02, 4.02, 4.02, 4.02, 4.02, 4.02, 4.02, 4.02, 4.47, 4.02, 4.02, 4.02, 4.02, 4.02, 4.02, 4.02, 4.02, 3.58, 3.58, 3.58, 3.58, 3.58, 3.58, 3.13, 3.13, 3.13, 3.13, 3.13, 3.13, 3.13, 3.13, 3.58, 3.58, 3.58, 3.58, 3.58, 3.58, 3.58, 3.58, 3.58, 3.58, 3.58, 3.58, 3.58, 3.58, 3.58, 3.58, 4.02, 4.02, 4.02, 4.02, 4.02, 4.02, 4.02, 4.02, 4.47, 4.47, 4.47, 4.47, 4.47, 4.47, 4.47]}, {"header": {"parameterCategory": 1, "parameterNumber": 3, "dx": 0.06612293990616946, "dy": 0.0552356325346848, "nx": 98, "ny": 59, "la1": 35.046912555036876, "la2": 31.78801023549047, "lo1": -121.43107172385933, "lo2": -114.95102361305473, "refTime": "2026040811"}, "data": [3.58, 3.58, 3.58, 3.13, 3.13, 3.13, 2.68, 2.68, 2.68, 2.24, 2.24, 1.79, 1.79, 1.34, 1.34, 0.89, 0.89, 0.45, 0.45, 0.0, 0.0, 0.0, 0.0, 0.0, -0.45, -0.45, -0.89, -0.89, -0.89, -0.89, -0.89, -0.89, -1.34, -0.89, -0.89, -0.89, -0.89, -0.89, -0.89, -0.89, -0.89, -0.89, -0.45, -0.45, 0.0, 0.0, 0.0, 0.0, 0.0, 0.45, 0.89, 0.89, 1.34, 1.34, 1.34, 1.79, 1.79, 2.24, 2.24, 2.68, 2.68, 2.68, 2.68, 3.13, 3.13, 2.68, 2.68, 2.68, 2.68, 2.68, 2.24, 2.24, 2.24, 2.24, 2.24, 1.79, 1.79, 1.79, 1.79, 1.79, 1.79, 1.79, 1.79, 1.34, 1.34, 1.34, 1.34, 1.34, 0.89, 0.89, 0.89, 0.45, 0.45, 0.45, 0.45, 0.45, 0.0, 0.0, 3.58, 3.58, 3.58, 3.13, 3.13, 3.13, 2.68, 2.68, 2.68, 2.24, 2.24, 1.79, 1.79, 1.34, 1.34, 0.89, 0.89, 0.45, 0.45, 0.0, 0.0, 0.0, 0.0, 0.0, -0.45, -0.45, -0.89, -0.89, -0.89, -0.89, -0.89, -0.89, -0.89, -0.89, -0.89, -0.89, -0.89, -0.89, -0.89, -0.89, -0.89, -0.89, -0.45, -0.45, 0.0, 0.0, 0.0, 0.0, 0.0, 0.45, 0.89, 0.89, 1.34, 1.34, 1.34, 1.34, 1.79, 1.79, 2.24, 2.24, 2.68, 2.68, 2.68, 2.68, 2.68, 2.68, 2.68, 2.68, 2.68, 2.68, 2.24, 2.24, 2.24, 2.24, 1.79, 1.79, 1.79, 1.79, 1.79, 1.79, 1.79, 1.79, 1.79, 1.34, 1.34, 1.34, 1.34, 1.34, 0.89, 0.89, 0.89, 0.45, 0.45, 0.45, 0.45, 0.45, 0.0, 0.0, 3.58, 3.58, 3.58, 3.13, 3.13, 3.13, 2.68, 2.68, 2.68, 2.24, 2.24, 1.79, 1.79, 1.34, 1.34, 0.89, 0.89, 0.45, 0.45, 0.0, 0.0, 0.0, 0.0, 0.0, 0.0, -0.45, -0.45, -0.45, -0.45, -0.45, -0.45, -0.45, -0.45, -0.45, -0.45, -0.45, -0.89, -0.89, -0.89, -0.89, -0.89, -0.45, -0.45, -0.45, -0.45, -0.45, 0.0, 0.0, 0.0, 0.45, 0.89, 0.89, 1.34, 1.34, 1.34, 1.34, 1.79, 1.79, 1.79, 2.24, 2.24, 2.24, 2.68, 2.68, 2.68, 2.68, 2.68, 2.68, 2.68, 2.68, 2.24, 2.24, 2.24, 2.24, 2.24, 1.79, 1.79, 1.79, 1.79, 1.79, 1.79, 1.79, 1.79, 1.79, 1.34, 1.34, 1.34, 1.34, 0.89, 0.89, 0.89, 0.89, 0.45, 0.45, 0.45, 0.0, 0.0, 0.0, 3.58, 3.58, 3.13, 3.13, 3.13, 3.13, 2.68, 2.68, 2.68, 2.24, 2.24, 1.79, 1.34, 1.34, 0.89, 0.89, 0.89, 0.45, 0.45, 0.0, 0.0, 0.0, 0.0, 0.0, 0.0, 0.0, 0.0, 0.0, 0.0, -0.45, -0.45, 0.0, -0.45, -0.45, -0.45, -0.45, -0.89, -0.89, -0.89, -0.89, -0.45, -0.45, -0.45, -0.45, -0.45, -0.45, 0.0, 0.0, 0.0, 0.45, 0.45, 0.89, 0.89, 1.34, 1.34, 1.34, 1.79, 1.79, 1.79, 2.24, 2.24, 2.24, 2.24, 2.68, 2.68, 2.68, 2.68, 2.68, 2.68, 2.24, 2.24, 2.24, 2.24, 2.24, 2.24, 2.24, 1.79, 1.79, 1.79, 1.79, 1.79, 1.79, 1.79, 1.79, 1.79, 1.34, 1.34, 1.34, 1.34, 0.89, 0.89, 0.89, 0.45, 0.45, 0.45, 0.0, 0.0, 0.0, 3.58, 3.58, 3.13, 3.13, 3.13, 3.13, 2.68, 2.68, 2.68, 2.24, 2.24, 1.79, 1.34, 1.34, 0.89, 0.89, 0.45, 0.45, 0.45, 0.0, 0.0, 0.0, 0.0, 0.0, 0.0, 0.0, 0.0, 0.0, 0.0, 0.0, 0.0, 0.0, 0.0, 0.0, -0.45, -0.45, -0.89, -0.89, -0.89, -0.45, -0.45, -0.45, -0.89, -0.89, -0.45, 0.0, 0.0, 0.0, 0.0, 0.45, 0.45, 0.89, 0.89, 1.34, 1.34, 1.34, 1.34, 1.79, 1.79, 1.79, 2.24, 2.24, 2.24, 2.24, 2.24, 2.68, 2.68, 2.68, 2.68, 2.24, 2.24, 2.24, 2.24, 2.24, 2.24, 2.24, 1.79, 1.79, 1.79, 1.79, 1.79, 1.79, 1.79, 1.79, 1.79, 1.34, 1.34, 1.34, 1.34, 1.34, 0.89, 0.89, 0.45, 0.45, 0.45, 0.0, 0.0, 0.0, 3.58, 3.58, 3.13, 3.13, 3.13, 3.13, 2.68, 2.68, 2.24, 2.24, 1.79, 1.79, 1.34, 1.34, 0.89, 0.89, 0.45, 0.45, 0.45, 0.0, 0.0, 0.0, 0.0, 0.0, 0.0, 0.0, 0.0, 0.0, 0.0, 0.0, 0.0, 0.0, -0.45, -0.45, -0.89, -0.89, -0.89, -0.89, -0.89, -0.45, -0.89, -0.89, -0.45, -0.45, -0.45, 0.0, 0.0, 0.0, 0.0, 0.45, 0.45, 0.89, 0.89, 1.34, 1.34, 1.34, 1.34, 1.79, 1.79, 1.79, 2.24, 2.24, 2.24, 2.24, 2.24, 2.24, 2.68, 2.68, 2.68, 2.68, 2.24, 2.24, 2.24, 2.24, 2.24, 2.24, 2.24, 2.24, 1.79, 1.79, 1.79, 1.79, 1.79, 1.79, 1.34, 1.34, 1.34, 1.34, 1.34, 1.34, 0.89, 0.89, 0.89, 0.45, 0.45, 0.0, 0.0, 0.0, 3.58, 3.13, 3.13, 3.13, 3.13, 2.68, 2.68, 2.68, 2.24, 2.24, 1.79, 1.79, 1.34, 1.34, 0.89, 0.89, 0.45, 0.45, 0.45, 0.0, 0.0, 0.0, 0.0, 0.0, 0.0, 0.0, 0.0, 0.0, 0.0, 0.0, -0.45, -0.89, -0.89, -1.34, -1.34, -1.34, -1.34, -1.34, -0.89, -0.89, -0.89, -0.89, -0.45, -0.45, 0.0, 0.0, 0.0, 0.0, 0.0, 0.45, 0.45, 0.89, 0.89, 0.89, 1.34, 1.34, 1.34, 1.79, 1.79, 2.24, 2.24, 2.24, 2.24, 2.24, 2.24, 2.24, 2.68, 2.68, 2.68, 2.68, 2.68, 2.24, 2.24, 2.24, 2.24, 2.24, 1.79, 1.79, 1.79, 1.79, 1.79, 1.79, 1.79, 1.79, 1.34, 1.34, 1.34, 1.34, 1.34, 1.34, 0.89, 0.89, 0.89, 0.45, 0.45, 0.45, 0.0, 0.0, 3.13, 3.13, 3.13, 3.13, 3.13, 2.68, 2.68, 2.68, 2.24, 2.24, 1.79, 1.79, 1.34, 1.34, 0.89, 0.89, 0.45, 0.45, 0.45, 0.0, 0.0, 0.0, 0.0, 0.0, 0.45, 0.45, 0.45, 0.0, 0.0, -0.45, -0.89, -1.34, -1.79, -1.79, -1.79, -1.79, -1.34, -1.34, -0.89, -0.89, -0.89, -0.45, 0.0, 0.0, 0.0, 0.0, 0.0, 0.0, 0.0, 0.0, 0.45, 0.45, 0.89, 0.89, 1.34, 1.34, 1.34, 1.79, 1.79, 2.24, 2.24, 2.24, 2.24, 2.24, 2.24, 2.24, 2.68, 2.68, 2.68, 2.68, 2.68, 2.24, 2.24, 2.24, 2.24, 1.79, 1.79, 1.79, 1.79, 1.79, 1.79, 1.79, 1.79, 1.79, 1.79, 1.34, 1.34, 1.34, 1.34, 1.34, 1.34, 0.89, 0.89, 0.89, 0.45, 0.45, 0.45, 0.0, 3.13, 3.13, 3.13, 3.13, 2.68, 2.68, 2.68, 2.68, 2.24, 2.24, 1.79, 1.79, 1.34, 1.34, 0.89, 0.89, 0.45, 0.45, 0.45, 0.0, 0.0, 0.0, 0.0, 0.0, 0.0, 0.0, 0.0, -0.45, -0.89, -1.34, -1.79, -1.79, -1.79, -1.79, -1.34, -0.89, -0.89, -0.45, -0.45, -0.45, -0.45, 0.0, 0.0, 0.0, 0.0, 0.0, 0.0, 0.0, 0.0, 0.0, 0.45, 0.45, 0.89, 0.89, 0.89, 1.34, 1.34, 1.79, 1.79, 1.79, 2.24, 2.24, 2.24, 2.24, 2.68, 2.24, 2.68, 2.68, 2.68, 2.68, 2.24, 2.24, 2.24, 2.24, 2.24, 2.24, 1.79, 1.79, 1.79, 1.79, 1.79, 1.79, 1.79, 1.79, 1.79, 1.79, 1.34, 1.34, 1.34, 1.34, 1.34, 0.89, 0.89, 0.89, 0.89, 0.89, 0.45, 0.45, 3.13, 3.13, 3.13, 3.13, 2.68, 2.68, 2.68, 2.24, 2.24, 1.79, 1.79, 1.79, 1.34, 1.34, 0.89, 0.89, 0.45, 0.45, 0.45, 0.45, 0.0, 0.0, 0.0, 0.0, 0.0, 0.0, -0.45, -1.34, -1.79, -1.34, -1.34, -0.89, -0.45, -0.45, -0.45, -0.45, -0.45, -0.45, -0.45, -0.45, 0.0, 0.0, 0.0, 0.0, 0.0, 0.0, 0.0, 0.0, 0.0, 0.0, 0.45, 0.45, 0.89, 0.89, 0.89, 1.34, 1.34, 1.79, 1.79, 1.79, 2.24, 2.24, 2.24, 2.24, 2.68, 2.24, 2.24, 2.24, 2.68, 2.68, 2.24, 2.24, 2.24, 2.24, 2.24, 2.24, 1.79, 1.79, 1.79, 1.79, 1.79, 1.79, 1.79, 1.79, 1.79, 1.79, 1.79, 1.34, 1.34, 1.34, 1.34, 1.34, 0.89, 0.89, 0.89, 0.89, 0.89, 0.45, 3.13, 3.13, 3.13, 2.68, 2.68, 2.68, 2.68, 2.24, 2.24, 1.79, 1.79, 1.79, 1.34, 1.34, 0.89, 0.89, 0.89, 0.45, 0.45, 0.45, 0.45, 0.45, 0.0, 0.0, 0.0, -0.45, -0.89, -1.34, -1.34, -1.34, -0.89, -0.45, -0.45, -0.45, -0.45, -0.45, -0.45, 0.0, -0.45, -0.45, 0.0, 0.0, 0.0, 0.0, 0.0, 0.0, 0.0, 0.0, 0.0, 0.0, 0.45, 0.45, 0.89, 0.89, 0.89, 1.34, 1.34, 1.79, 1.79, 1.79, 1.79, 2.24, 2.24, 2.24, 2.24, 2.24, 2.24, 2.24, 2.24, 2.24, 2.24, 2.24, 2.24, 2.24, 2.24, 1.79, 1.79, 1.79, 1.79, 1.79, 1.79, 1.79, 1.79, 1.79, 1.79, 1.79, 1.79, 1.34, 1.34, 1.34, 1.34, 1.34, 1.34, 0.89, 0.89, 0.89, 0.89, 0.45, 3.13, 3.13, 2.68, 2.68, 2.68, 2.68, 2.24, 2.24, 2.24, 1.79, 1.79, 1.79, 1.34, 1.34, 0.89, 0.89, 0.89, 0.45, 0.45, 0.45, 0.45, 0.0, 0.0, 0.0, 0.0, -0.45, -0.89, -0.89, -0.45, -0.45, -0.45, -0.45, -0.45, -0.45, -0.45, 0.0, 0.0, 0.0, 0.0, 0.0, 0.0, 0.0, 0.0, 0.0, 0.0, 0.0, 0.0, 0.0, 0.0, 0.0, 0.45, 0.45, 0.89, 0.89, 0.89, 1.34, 1.34, 1.79, 1.79, 1.79, 1.79, 2.24, 2.24, 2.24, 2.24, 2.24, 2.24, 2.24, 2.24, 2.24, 2.24, 2.24, 2.24, 2.24, 2.24, 1.79, 1.79, 1.79, 1.79, 1.34, 1.79, 1.79, 1.79, 1.79, 1.79, 1.79, 1.79, 1.34, 1.34, 1.34, 1.34, 1.34, 1.34, 0.89, 0.89, 0.89, 0.89, 0.89, 3.13, 2.68, 2.68, 2.68, 2.68, 2.68, 2.24, 2.24, 1.79, 1.79, 1.79, 1.79, 1.34, 1.34, 0.89, 0.89, 0.89, 0.45, 0.45, 0.45, 0.45, 0.0, 0.0, 0.0, -0.45, -0.89, -0.89, -0.45, -0.45, -0.45, -0.45, -0.45, -0.45, -0.45, 0.0, 0.0, 0.0, 0.0, 0.0, 0.0, 0.0, 0.0, 0.0, 0.0, 0.0, 0.0, 0.0, 0.0, 0.0, 0.0, 0.45, 0.45, 0.89, 0.89, 0.89, 1.34, 1.34, 1.79, 1.79, 1.79, 2.24, 2.24, 2.24, 2.24, 2.24, 2.24, 2.24, 2.24, 2.24, 2.24, 2.24, 2.24, 2.24, 2.24, 1.79, 1.79, 1.79, 1.79, 1.79, 1.34, 1.34, 1.34, 1.34, 1.79, 1.79, 1.79, 1.34, 1.34, 1.34, 1.34, 1.34, 1.34, 1.34, 0.89, 0.89, 0.89, 0.89, 0.89, 3.13, 2.68, 2.68, 2.68, 2.68, 2.24, 2.24, 2.24, 1.79, 1.79, 1.79, 1.79, 1.34, 1.34, 0.89, 0.89, 0.89, 0.45, 0.45, 0.45, 0.45, 0.0, 0.0, -0.45, -0.45, -0.89, -0.45, -0.45, -0.45, 0.0, 0.0, 0.0, 0.0, 0.0, 0.0, 0.0, 0.0, 0.0, 0.0, 0.0, 0.0, 0.0, 0.0, 0.0, 0.0, 0.0, 0.0, 0.0, 0.0, 0.45, 0.45, 0.45, 0.89, 0.89, 1.34, 1.34, 1.34, 1.79, 1.79, 1.79, 2.24, 2.24, 2.24, 2.24, 2.24, 2.24, 2.24, 2.24, 2.24, 2.24, 2.24, 2.24, 2.24, 1.79, 1.79, 1.79, 1.79, 1.79, 1.34, 1.34, 1.34, 1.34, 1.34, 1.34, 1.79, 1.34, 1.34, 1.34, 1.34, 1.34, 1.34, 1.34, 0.89, 0.89, 0.89, 0.89, 0.89, 0.89, 2.68, 2.68, 2.68, 2.68, 2.68, 2.24, 2.24, 2.24, 1.79, 1.79, 1.79, 1.79, 1.34, 1.34, 0.89, 0.89, 0.89, 0.45, 0.45, 0.45, 0.0, 0.0, 0.0, -0.45, -0.45, -0.45, -0.45, 0.0, 0.0, 0.0, 0.0, 0.0, 0.0, 0.0, 0.0, 0.0, 0.0, -0.45, -0.45, -0.45, -0.45, -0.45, -0.45, -0.45, 0.0, 0.0, 0.0, 0.0, 0.0, 0.45, 0.45, 0.89, 0.89, 0.89, 1.34, 1.34, 1.79, 1.79, 1.79, 1.79, 2.24, 2.24, 2.24, 2.24, 2.24, 2.24, 2.24, 2.24, 2.24, 2.24, 1.79, 1.79, 1.79, 1.79, 1.79, 1.79, 1.79, 1.79, 1.34, 1.34, 1.34, 1.34, 1.34, 1.34, 1.34, 1.34, 1.34, 1.34, 1.34, 1.34, 1.34, 0.89, 0.89, 0.89, 0.89, 0.89, 0.89, 0.89, 2.68, 2.68, 2.68, 2.68, 2.24, 2.24, 2.24, 2.24, 1.79, 1.79, 1.79, 1.34, 1.34, 1.34, 1.34, 0.89, 0.89, 0.45, 0.45, 0.45, 0.0, 0.0, 0.0, -0.45, -0.45, -0.45, 0.0, 0.0, 0.0, 0.0, 0.0, 0.0, 0.0, 0.0, 0.0, -0.45, -0.45, -0.45, -0.45, -0.45, -0.45, -0.45, -0.45, -0.45, 0.0, 0.0, 0.0, 0.0, 0.0, 0.45, 0.45, 0.89, 0.89, 0.89, 1.34, 1.34, 1.79, 1.79, 1.79, 1.79, 1.79, 2.24, 2.24, 2.24, 2.24, 2.24, 2.24, 2.24, 2.24, 2.24, 1.79, 1.79, 1.79, 1.79, 1.79, 1.79, 1.79, 1.79, 1.79, 1.34, 1.34, 1.34, 1.34, 1.34, 1.34, 1.79, 1.79, 1.79, 1.34, 1.34, 1.34, 0.89, 0.89, 0.89, 0.89, 0.89, 0.89, 0.89, 2.68, 2.68, 2.68, 2.24, 2.24, 2.24, 2.24, 1.79, 1.79, 1.79, 1.79, 1.34, 1.34, 1.34, 1.34, 0.89, 0.89, 0.89, 0.45, 0.45, 0.0, 0.0, 0.0, 0.0, 0.0, 0.0, 0.0, 0.0, 0.0, 0.0, 0.0, 0.0, 0.0, 0.0, -0.45, -0.45, -0.45, -0.45, -0.45, -0.45, -0.45, -0.45, -0.45, -0.45, -0.45, 0.0, 0.0, 0.0, 0.45, 0.45, 0.45, 0.45, 0.89, 0.89, 1.34, 1.34, 1.79, 1.79, 1.79, 1.79, 2.24, 2.24, 2.24, 2.24, 2.24, 2.24, 2.24, 2.24, 2.24, 1.79, 1.79, 1.79, 1.79, 1.79, 1.79, 1.79, 1.79, 1.79, 1.79, 1.79, 1.79, 1.34, 1.34, 1.34, 1.34, 1.79, 1.79, 1.79, 1.34, 1.34, 1.34, 1.34, 0.89, 0.89, 0.89, 0.89, 0.89, 0.89, 2.68, 2.68, 2.68, 2.24, 2.24, 2.24, 2.24, 1.79, 1.79, 1.79, 1.79, 1.34, 1.34, 1.34, 1.34, 0.89, 0.89, 0.89, 0.45, 0.45, 0.0, 0.0, 0.0, 0.0, 0.0, 0.0, 0.0, 0.0, 0.0, 0.0, 0.0, 0.0, 0.0, -0.45, -0.45, -0.45, -0.45, -0.89, -0.89, -0.89, -0.89, -0.89, -0.45, -0.45, 0.0, 0.0, 0.0, 0.0, 0.45, 0.45, 0.45, 0.45, 0.89, 0.89, 1.34, 1.34, 1.79, 1.79, 1.79, 2.24, 2.24, 2.24, 2.24, 2.24, 2.24, 2.24, 2.24, 2.24, 2.24, 1.79, 1.79, 1.79, 1.79, 1.79, 1.79, 1.79, 1.79, 1.79, 1.79, 1.79, 1.79, 1.34, 1.34, 1.34, 1.34, 1.79, 1.79, 1.79, 1.79, 1.34, 1.34, 1.34, 0.89, 0.89, 0.89, 0.89, 0.89, 0.89, 2.68, 2.68, 2.24, 2.24, 2.24, 2.24, 1.79, 1.79, 1.79, 1.79, 1.79, 1.34, 1.34, 1.34, 1.34, 0.89, 0.89, 0.89, 0.45, 0.0, 0.0, 0.0, 0.0, 0.0, 0.0, 0.0, 0.0, 0.0, 0.0, 0.0, 0.0, -0.45, -0.45, -0.45, -0.89, -0.89, -0.89, -0.89, -0.89, -0.89, -0.45, -0.45, -0.45, 0.0, 0.0, 0.0, 0.0, 0.0, 0.0, 0.45, 0.45, 0.45, 0.89, 0.89, 1.34, 1.34, 1.79, 1.79, 1.79, 2.24, 2.24, 2.24, 2.24, 2.24, 2.24, 2.24, 2.24, 2.24, 2.24, 2.24, 1.79, 1.79, 1.79, 1.79, 1.79, 1.79, 1.79, 1.79, 1.79, 1.79, 1.79, 1.34, 1.34, 1.34, 1.79, 1.34, 1.34, 1.79, 1.79, 1.34, 1.34, 1.34, 1.34, 0.89, 0.89, 0.89, 0.89, 0.89, 2.68, 2.68, 2.24, 2.24, 2.24, 2.24, 1.79, 1.79, 1.79, 1.79, 1.79, 1.34, 1.34, 1.34, 1.34, 0.89, 0.89, 0.89, 0.45, 0.0, 0.0, 0.0, 0.0, 0.0, 0.0, 0.0, 0.0, 0.0, 0.0, -0.45, -0.45, -0.45, -0.45, -0.89, -0.89, -0.89, -0.89, -0.89, -0.89, -0.45, -0.45, -0.45, -0.45, 0.0, 0.0, 0.0, 0.0, 0.0, 0.0, 0.45, 0.45, 0.45, 0.89, 0.89, 1.34, 1.34, 1.79, 1.79, 1.79, 2.24, 2.24, 2.24, 2.24, 2.24, 2.24, 2.24, 2.24, 2.24, 2.24, 2.24, 2.24, 2.24, 1.79, 1.79, 1.79, 1.79, 1.79, 1.79, 1.79, 1.79, 1.79, 1.79, 1.34, 1.34, 1.34, 1.34, 1.34, 1.34, 1.34, 1.34, 1.34, 1.34, 1.34, 0.89, 0.89, 0.89, 0.89, 0.89, 2.68, 2.24, 2.24, 2.24, 2.24, 2.24, 1.79, 1.79, 1.79, 1.79, 1.79, 1.34, 1.34, 1.34, 1.34, 0.89, 0.89, 0.89, 0.45, 0.45, 0.45, 0.45, 0.45, 0.0, 0.0, 0.0, 0.0, 0.0, 0.0, -0.45, -0.45, -0.45, -0.45, -0.45, -0.89, -0.89, -0.89, -0.89, -0.45, -0.45, -0.45, -0.45, -0.45, 0.0, 0.0, 0.0, 0.0, 0.0, 0.0, 0.45, 0.45, 0.45, 0.89, 0.89, 1.34, 1.34, 1.79, 1.79, 1.79, 2.24, 2.24, 2.24, 2.24, 2.24, 2.24, 2.24, 2.24, 2.24, 2.24, 2.24, 2.24, 2.24, 1.79, 1.79, 1.79, 1.79, 1.79, 1.79, 1.79, 1.79, 1.79, 1.79, 1.34, 1.34, 1.34, 1.34, 1.34, 1.34, 1.34, 1.34, 1.34, 1.34, 1.34, 0.89, 0.89, 0.89, 0.89, 0.89, 2.68, 2.24, 2.24, 2.24, 2.24, 1.79, 1.79, 1.79, 1.79, 1.79, 1.79, 1.34, 1.34, 1.34, 1.34, 0.89, 0.89, 0.89, 0.45, 0.45, 0.45, 0.45, 0.0, 0.0, 0.0, 0.0, 0.0, 0.0, 0.0, -0.45, -0.45, -0.45, -0.45, -0.45, -0.45, -0.45, -0.45, -0.45, -0.45, -0.45, -0.45, -0.45, -0.45, 0.0, 0.0, 0.0, 0.0, 0.0, 0.0, 0.0, 0.45, 0.45, 0.89, 0.89, 1.34, 1.34, 1.79, 1.79, 1.79, 2.24, 2.24, 2.24, 2.24, 2.24, 2.24, 2.24, 2.24, 2.24, 2.24, 2.24, 1.79, 1.79, 1.79, 1.79, 1.79, 1.79, 1.79, 1.79, 1.79, 1.79, 1.79, 1.79, 1.79, 1.34, 1.34, 1.34, 1.34, 1.34, 1.34, 1.34, 0.89, 1.34, 1.34, 0.89, 0.89, 0.89, 0.89, 0.89, 2.24, 2.24, 2.24, 2.24, 1.79, 1.79, 1.79, 1.79, 1.79, 1.79, 1.79, 1.34, 1.34, 1.34, 1.34, 0.89, 0.89, 0.89, 0.45, 0.45, 0.45, 0.45, 0.45, 0.45, 0.45, 0.0, 0.0, 0.0, 0.0, 0.0, -0.45, -0.45, -0.45, -0.45, -0.45, -0.45, -0.45, -0.45, -0.45, -0.45, -0.45, -0.45, -0.45, -0.45, 0.0, 0.0, 0.0, 0.0, 0.0, 0.0, 0.45, 0.45, 0.89, 0.89, 1.34, 1.34, 1.79, 1.79, 1.79, 2.24, 2.24, 2.24, 2.24, 2.24, 2.24, 2.24, 2.24, 2.24, 2.24, 2.24, 2.24, 1.79, 2.24, 2.24, 2.24, 1.79, 1.79, 1.79, 1.79, 1.34, 1.34, 1.34, 1.34, 1.34, 1.34, 1.34, 1.34, 0.89, 0.89, 0.89, 0.89, 0.89, 0.89, 0.89, 0.89, 0.89, 0.89, 0.89, 2.24, 2.24, 2.24, 2.24, 1.79, 1.79, 1.79, 1.79, 1.79, 1.79, 1.79, 1.34, 1.34, 1.34, 1.34, 0.89, 0.89, 0.89, 0.89, 0.45, 0.45, 0.45, 0.45, 0.45, 0.45, 0.0, 0.0, 0.0, 0.0, 0.0, -0.45, -0.45, -0.45, -0.45, -0.45, -0.45, -0.45, -0.45, -0.45, -0.45, -0.45, -0.45, -0.45, -0.45, -0.45, 0.0, 0.0, 0.0, 0.0, 0.0, 0.45, 0.45, 0.89, 1.34, 1.34, 1.79, 1.79, 1.79, 2.24, 2.24, 2.24, 2.24, 2.24, 2.24, 2.24, 2.24, 2.24, 2.24, 2.24, 2.24, 2.24, 2.24, 2.24, 2.24, 2.24, 1.79, 1.79, 1.79, 1.34, 1.34, 1.34, 1.34, 1.34, 1.34, 1.34, 1.34, 1.34, 0.89, 0.89, 0.89, 0.89, 0.89, 0.89, 0.89, 0.89, 0.89, 0.89, 0.89, 2.24, 2.24, 2.24, 2.24, 1.79, 1.79, 1.79, 1.79, 1.79, 1.79, 1.34, 1.34, 1.34, 1.34, 1.34, 0.89, 0.89, 0.89, 0.89, 0.89, 0.45, 0.45, 0.45, 0.45, 0.45, 0.0, 0.0, 0.0, 0.0, 0.0, -0.45, -0.45, -0.45, -0.45, -0.45, -0.45, -0.45, -0.89, -0.45, -0.45, -0.45, -0.45, -0.45, -0.45, -0.45, 0.0, 0.0, 0.0, 0.0, 0.0, 0.45, 0.45, 0.89, 1.34, 1.34, 1.79, 1.79, 2.24, 2.24, 2.24, 2.24, 2.24, 2.24, 2.24, 2.24, 2.24, 2.24, 2.24, 2.24, 2.24, 2.24, 2.24, 2.24, 2.24, 2.24, 2.24, 1.79, 1.79, 1.34, 1.34, 1.34, 1.34, 1.34, 1.34, 0.89, 0.89, 0.89, 0.89, 0.89, 0.89, 0.89, 0.89, 0.89, 0.89, 0.89, 0.89, 0.89, 0.89, 2.24, 2.24, 2.24, 2.24, 1.79, 1.79, 1.79, 1.79, 1.79, 1.34, 1.34, 1.34, 1.34, 1.34, 1.34, 0.89, 0.89, 0.89, 0.89, 0.89, 0.45, 0.45, 0.45, 0.45, 0.45, 0.0, 0.0, 0.0, 0.0, 0.0, -0.45, -0.45, -0.45, -0.45, -0.45, -0.45, -0.45, -0.89, -0.89, -0.89, -0.89, -0.89, -0.45, -0.45, -0.45, 0.0, 0.0, 0.0, 0.0, 0.0, 0.45, 0.45, 0.89, 1.34, 1.34, 1.79, 1.79, 2.24, 2.24, 2.24, 2.24, 2.24, 2.24, 2.24, 2.24, 2.24, 2.24, 2.24, 2.24, 2.24, 2.24, 2.24, 2.24, 2.24, 2.24, 1.79, 1.79, 1.79, 1.34, 1.34, 1.34, 0.89, 0.89, 0.89, 0.89, 0.89, 0.89, 0.89, 0.89, 0.89, 0.89, 0.89, 0.89, 0.89, 0.89, 0.89, 0.89, 0.89, 2.24, 2.24, 2.24, 1.79, 1.79, 1.79, 1.79, 1.79, 1.34, 1.34, 1.34, 1.34, 1.34, 1.34, 1.34, 0.89, 0.89, 0.89, 0.89, 0.89, 0.45, 0.45, 0.45, 0.45, 0.45, 0.0, 0.0, 0.0, 0.0, 0.0, 0.0, -0.45, -0.45, -0.45, -0.45, -0.45, -0.45, -0.45, -0.89, -0.89, -0.89, -0.45, -0.45, -0.45, -0.45, 0.0, 0.0, 0.0, 0.0, 0.0, 0.45, 0.89, 0.89, 1.34, 1.34, 1.79, 1.79, 2.24, 2.24, 2.24, 2.24, 2.24, 2.24, 2.24, 2.24, 2.24, 2.24, 2.24, 2.24, 2.24, 2.24, 2.24, 2.24, 2.24, 2.24, 2.24, 1.79, 1.79, 1.34, 1.34, 1.34, 0.89, 0.89, 0.89, 0.89, 0.89, 0.89, 0.89, 0.89, 0.89, 0.45, 0.89, 0.89, 0.89, 0.89, 0.89, 0.89, 0.89, 2.24, 2.24, 2.24, 1.79, 1.79, 1.79, 1.79, 1.34, 1.34, 1.34, 1.34, 1.34, 1.34, 1.34, 1.34, 0.89, 0.89, 0.89, 0.89, 0.89, 0.45, 0.45, 0.45, 0.45, 0.45, 0.0, 0.0, 0.0, 0.0, 0.0, 0.0, -0.45, -0.45, -0.45, -0.45, -0.45, -0.45, -0.45, -0.89, -0.89, -0.89, -0.45, -0.45, -0.45, 0.0, 0.0, 0.0, 0.0, 0.0, 0.0, 0.45, 0.89, 0.89, 1.34, 1.34, 1.79, 1.79, 2.24, 2.24, 2.24, 2.24, 2.24, 2.24, 2.24, 2.24, 2.24, 2.24, 2.24, 2.24, 2.24, 2.24, 2.24, 2.24, 2.24, 2.24, 1.79, 1.79, 1.79, 1.34, 1.34, 1.34, 0.89, 0.89, 0.89, 0.89, 0.89, 0.89, 0.89, 0.89, 0.89, 0.45, 0.45, 0.45, 0.45, 0.89, 0.89, 0.89, 0.89, 2.24, 2.24, 1.79, 1.79, 1.79, 1.79, 1.34, 1.34, 1.34, 1.34, 1.34, 1.34, 1.34, 1.34, 1.34, 1.34, 0.89, 0.89, 0.89, 0.89, 0.89, 0.45, 0.45, 0.45, 0.45, 0.0, 0.0, 0.0, 0.0, 0.0, -0.45, -0.45, -0.45, -0.45, -0.45, -0.45, -0.45, -0.45, -0.89, -0.89, -0.89, -0.45, -0.45, -0.45, 0.0, 0.0, 0.0, 0.0, 0.0, 0.45, 0.45, 0.89, 0.89, 1.34, 1.79, 1.79, 1.79, 2.24, 2.24, 2.24, 2.24, 2.24, 2.24, 2.24, 2.24, 2.24, 2.24, 2.24, 2.24, 2.24, 2.24, 2.24, 1.79, 1.79, 1.79, 1.79, 1.79, 1.79, 1.79, 1.34, 1.34, 1.34, 0.89, 0.89, 0.89, 0.89, 0.89, 0.89, 0.89, 0.89, 0.89, 0.45, 0.45, 0.45, 0.45, 0.45, 0.45, 0.45, 2.24, 2.24, 1.79, 1.79, 1.79, 1.79, 1.34, 1.34, 1.34, 1.34, 1.34, 1.34, 1.34, 1.34, 1.34, 1.34, 0.89, 0.89, 0.89, 0.89, 0.89, 0.45, 0.45, 0.45, 0.45, 0.0, 0.0, 0.0, 0.0, 0.0, -0.45, -0.45, -0.45, -0.45, -0.45, -0.45, -0.45, -0.45, -0.89, -0.89, -0.89, -0.45, -0.45, -0.45, 0.0, 0.0, 0.0, 0.0, 0.0, 0.45, 0.89, 0.89, 1.34, 1.34, 1.79, 1.79, 2.24, 2.24, 2.24, 2.24, 2.24, 2.24, 2.24, 2.24, 2.24, 2.24, 2.24, 2.24, 2.24, 2.24, 2.24, 1.79, 1.79, 1.79, 1.79, 1.79, 1.79, 1.79, 1.79, 1.34, 1.34, 1.34, 1.34, 0.89, 0.89, 0.89, 0.89, 0.89, 0.89, 0.89, 0.89, 0.89, 0.89, 0.45, 0.45, 0.45, 0.45, 0.45, 1.79, 1.79, 1.79, 1.79, 1.79, 1.34, 1.34, 1.34, 1.34, 1.34, 1.34, 1.34, 1.34, 1.34, 1.34, 1.34, 0.89, 0.89, 0.89, 0.89, 0.89, 0.45, 0.45, 0.45, 0.0, 0.0, 0.0, 0.0, 0.0, 0.0, 0.0, 0.0, 0.0, -0.45, -0.45, -0.45, -0.45, -0.89, -0.89, -0.89, -0.89, -0.45, -0.45, -0.45, 0.0, 0.0, 0.0, 0.0, 0.0, 0.45, 0.89, 0.89, 1.34, 1.34, 1.79, 1.79, 2.24, 2.24, 2.24, 2.24, 2.24, 2.24, 2.24, 2.24, 2.24, 2.24, 2.24, 2.24, 1.79, 1.79, 1.79, 1.79, 1.79, 1.79, 1.79, 1.79, 1.79, 1.79, 1.79, 1.79, 1.34, 1.34, 1.34, 0.89, 0.89, 0.89, 0.89, 0.89, 0.89, 0.89, 0.89, 0.89, 0.45, 0.45, 0.45, 0.45, 0.0, 0.0, 1.79, 1.79, 1.79, 1.79, 1.34, 1.34, 1.34, 1.34, 1.34, 1.34, 1.34, 1.34, 1.34, 1.34, 1.34, 1.34, 0.89, 0.89, 0.89, 0.89, 0.89, 0.45, 0.45, 0.45, 0.0, 0.0, 0.0, 0.0, 0.0, 0.0, 0.0, 0.0, 0.0, -0.45, -0.45, -0.45, -0.89, -0.89, -0.89, -0.89, -0.45, -0.45, -0.45, -0.45, 0.0, 0.0, 0.0, 0.0, 0.45, 0.45, 0.89, 0.89, 1.34, 1.79, 1.79, 1.79, 2.24, 2.24, 2.24, 2.24, 2.24, 2.24, 2.24, 2.24, 2.24, 2.24, 2.24, 2.24, 2.24, 1.79, 1.79, 1.79, 1.79, 1.79, 1.79, 1.79, 1.79, 1.34, 1.34, 1.34, 1.34, 1.34, 0.89, 0.89, 0.89, 0.89, 0.89, 0.89, 0.89, 0.45, 0.45, 0.45, 0.45, 0.45, 0.45, 0.45, 0.0, 0.0, 1.79, 1.79, 1.79, 1.79, 1.34, 1.34, 1.34, 1.34, 1.34, 1.34, 1.34, 1.34, 1.34, 1.34, 1.34, 1.34, 0.89, 0.89, 0.89, 0.89, 0.89, 0.45, 0.45, 0.45, 0.0, 0.0, 0.0, 0.0, 0.0, 0.0, 0.0, 0.0, 0.0, -0.45, -0.45, -0.45, -0.89, -0.89, -0.89, -0.45, -0.45, -0.45, -0.45, 0.0, 0.0, 0.0, 0.0, 0.0, 0.45, 0.45, 0.89, 1.34, 1.34, 1.79, 1.79, 1.79, 2.24, 2.24, 2.24, 2.24, 2.24, 2.24, 2.24, 2.24, 2.24, 2.24, 2.24, 2.24, 2.24, 2.24, 2.24, 1.79, 1.79, 1.79, 1.79, 1.79, 1.34, 1.34, 1.34, 1.34, 1.34, 1.34, 0.89, 0.89, 0.89, 0.89, 0.89, 0.89, 0.45, 0.45, 0.45, 0.45, 0.0, 0.0, 0.0, 0.45, 0.0, 0.0, 1.79, 1.79, 1.79, 1.34, 1.34, 1.34, 1.34, 1.34, 1.34, 1.34, 1.34, 1.34, 1.34, 1.34, 1.34, 1.34, 0.89, 0.89, 0.89, 0.89, 0.89, 0.45, 0.45, 0.45, 0.0, 0.0, 0.0, 0.0, 0.0, 0.0, 0.0, 0.0, -0.45, -0.45, -0.45, -0.45, -0.45, -0.45, -0.45, -0.45, -0.45, -0.45, -0.45, 0.0, 0.0, 0.0, 0.0, 0.0, 0.45, 0.45, 0.89, 1.34, 1.34, 1.79, 1.79, 1.79, 2.24, 2.24, 2.24, 2.24, 2.24, 2.24, 2.24, 2.24, 2.24, 2.24, 2.24, 2.24, 2.24, 2.24, 1.79, 1.79, 1.79, 1.79, 1.79, 1.79, 1.34, 1.34, 1.34, 1.34, 1.34, 0.89, 0.89, 0.89, 0.89, 0.89, 0.45, 0.45, 0.45, 0.45, 0.0, 0.0, 0.0, 0.0, 0.0, 0.0, 0.0, 0.0, 1.79, 1.79, 1.79, 1.34, 1.34, 1.34, 1.34, 1.34, 1.34, 1.34, 1.34, 1.34, 1.34, 1.34, 1.34, 1.34, 0.89, 0.89, 0.89, 0.89, 0.89, 0.45, 0.45, 0.45, 0.0, 0.0, 0.0, 0.0, 0.0, 0.0, 0.0, 0.0, -0.45, -0.45, -0.45, -0.45, -0.45, -0.45, -0.45, -0.45, -0.45, -0.45, -0.45, 0.0, 0.0, 0.0, 0.0, 0.0, 0.45, 0.89, 0.89, 1.34, 1.34, 1.79, 1.79, 1.79, 2.24, 2.24, 2.24, 2.24, 2.24, 2.24, 2.24, 2.24, 2.24, 2.24, 2.24, 2.24, 2.24, 1.79, 1.79, 1.79, 1.79, 1.79, 1.79, 1.79, 1.34, 1.34, 1.34, 0.89, 0.89, 0.89, 0.89, 0.89, 0.89, 0.89, 0.45, 0.45, 0.45, 0.0, 0.0, 0.0, 0.0, 0.0, 0.0, 0.0, 0.0, 0.0, 1.79, 1.79, 1.79, 1.34, 1.34, 1.34, 1.34, 1.34, 1.34, 1.34, 1.34, 1.34, 1.34, 1.34, 1.34, 1.34, 0.89, 0.89, 0.89, 0.89, 0.89, 0.45, 0.45, 0.45, 0.0, 0.0, 0.0, 0.0, 0.0, 0.0, 0.0, 0.0, -0.45, -0.45, -0.45, -0.45, -0.45, -0.45, -0.45, -0.45, -0.45, -0.45, 0.0, 0.0, 0.0, 0.0, 0.0, 0.45, 0.45, 0.89, 0.89, 1.34, 1.79, 1.79, 1.79, 1.79, 2.24, 2.24, 2.24, 2.24, 2.24, 2.24, 2.24, 2.24, 2.24, 2.24, 2.24, 2.24, 2.24, 2.24, 1.79, 1.79, 1.79, 1.79, 1.79, 1.34, 1.34, 1.34, 1.34, 1.34, 0.89, 0.89, 0.89, 0.89, 0.89, 0.45, 0.45, 0.45, 0.0, 0.0, 0.0, 0.0, 0.0, 0.0, 0.0, 0.0, -0.45, -0.45, 1.79, 1.79, 1.34, 1.34, 1.34, 1.34, 1.34, 1.34, 1.34, 0.89, 0.89, 0.89, 0.89, 0.89, 0.89, 0.89, 0.89, 0.89, 0.89, 0.89, 0.89, 0.45, 0.45, 0.45, 0.0, 0.0, 0.0, 0.0, 0.0, 0.0, 0.0, 0.0, 0.0, -0.45, -0.45, -0.45, -0.45, -0.45, -0.45, -0.45, -0.45, -0.45, 0.0, 0.0, 0.0, 0.0, 0.0, 0.45, 0.45, 0.89, 1.34, 1.34, 1.79, 1.79, 1.79, 1.79, 2.24, 2.24, 2.24, 2.24, 2.24, 2.24, 2.24, 2.24, 2.24, 2.24, 2.24, 2.24, 2.24, 2.24, 1.79, 1.79, 1.79, 1.79, 1.79, 1.34, 1.34, 1.34, 1.34, 1.34, 0.89, 0.89, 0.89, 0.89, 0.89, 0.45, 0.45, 0.45, 0.0, 0.0, 0.0, 0.0, 0.0, 0.0, 0.0, -0.45, -0.45, -0.45, 1.79, 1.79, 1.34, 1.34, 1.34, 1.34, 1.34, 1.34, 0.89, 0.89, 0.89, 0.89, 0.89, 0.89, 0.89, 0.89, 0.89, 0.89, 0.89, 0.89, 0.89, 0.45, 0.45, 0.0, 0.0, 0.0, 0.0, 0.0, 0.0, 0.0, 0.0, 0.0, 0.0, 0.0, -0.45, -0.45, -0.45, -0.45, -0.45, -0.45, -0.45, 0.0, 0.0, 0.0, 0.0, 0.0, 0.0, 0.45, 0.89, 0.89, 1.34, 1.34, 1.79, 1.79, 1.79, 1.79, 2.24, 2.24, 2.24, 2.24, 2.24, 2.24, 2.24, 2.24, 2.24, 2.24, 2.24, 2.24, 2.24, 2.24, 2.24, 1.79, 1.79, 1.79, 1.79, 1.79, 1.34, 1.34, 1.34, 1.34, 1.34, 0.89, 0.89, 0.89, 0.89, 0.45, 0.45, 0.45, 0.45, 0.0, 0.0, 0.0, 0.0, 0.0, 0.0, 0.0, -0.45, -0.45, 1.79, 1.79, 1.34, 1.34, 1.34, 1.34, 1.34, 0.89, 0.89, 0.89, 0.89, 0.89, 0.89, 0.89, 0.89, 0.89, 0.89, 0.89, 0.89, 0.89, 0.45, 0.45, 0.45, 0.0, 0.0, 0.0, 0.0, 0.0, 0.0, 0.0, 0.0, 0.0, 0.0, 0.0, -0.45, -0.45, -0.45, -0.45, -0.45, -0.45, 0.0, 0.0, 0.0, 0.0, 0.0, 0.0, 0.45, 0.45, 0.89, 0.89, 1.34, 1.34, 1.79, 1.79, 1.79, 1.79, 2.24, 2.24, 2.24, 2.24, 2.24, 2.24, 2.24, 2.24, 2.24, 2.24, 2.24, 2.24, 2.24, 2.24, 2.24, 1.79, 1.79, 1.79, 1.79, 1.79, 1.34, 1.34, 1.34, 1.34, 1.34, 0.89, 0.89, 0.89, 0.89, 0.45, 0.45, 0.45, 0.45, 0.0, 0.0, 0.0, 0.0, 0.0, 0.0, 0.0, 0.0, -0.45, 1.79, 1.79, 1.34, 1.34, 1.34, 1.34, 0.89, 0.89, 0.89, 0.89, 0.89, 0.89, 0.89, 0.89, 0.89, 0.89, 0.89, 0.89, 0.89, 0.89, 0.45, 0.45, 0.45, 0.0, 0.0, 0.0, 0.0, 0.0, 0.0, 0.0, 0.0, 0.0, 0.0, 0.0, 0.0, 0.0, -0.45, -0.45, -0.45, 0.0, 0.0, 0.0, 0.0, 0.0, 0.0, 0.0, 0.45, 0.45, 0.89, 0.89, 1.34, 1.34, 1.79, 1.79, 1.79, 1.79, 1.79, 2.24, 2.24, 2.24, 2.24, 2.24, 2.24, 2.24, 2.24, 2.24, 2.24, 2.24, 2.24, 2.24, 2.24, 1.79, 1.79, 1.79, 1.79, 1.79, 1.79, 1.34, 1.34, 1.34, 1.34, 0.89, 0.89, 0.89, 0.45, 0.45, 0.45, 0.45, 0.45, 0.0, 0.0, 0.0, 0.0, 0.0, 0.0, 0.0, 0.0, 0.0, 1.34, 1.34, 1.34, 1.34, 1.34, 1.34, 0.89, 0.89, 0.89, 0.89, 0.89, 0.89, 0.89, 0.89, 0.89, 0.89, 0.89, 0.89, 0.89, 0.89, 0.45, 0.45, 0.45, 0.0, 0.0, 0.0, 0.0, 0.0, 0.0, 0.0, 0.0, 0.0, 0.0, 0.0, 0.0, 0.0, 0.0, 0.0, 0.0, 0.0, 0.0, 0.0, 0.0, 0.0, 0.0, 0.0, 0.45, 0.45, 0.89, 0.89, 1.34, 1.34, 1.34, 1.79, 1.79, 1.79, 1.79, 2.24, 2.24, 2.24, 2.24, 2.24, 2.24, 2.24, 2.24, 2.24, 2.24, 2.24, 2.24, 2.24, 2.24, 2.24, 2.24, 1.79, 1.79, 1.79, 1.79, 1.79, 1.34, 1.34, 1.34, 0.89, 0.89, 0.89, 0.45, 0.45, 0.45, 0.45, 0.45, 0.0, 0.0, 0.0, 0.0, 0.0, 0.0, 0.0, 0.0, 0.0, 1.34, 1.34, 1.34, 1.34, 1.34, 1.34, 0.89, 0.89, 0.89, 0.89, 0.89, 0.89, 0.89, 0.89, 0.89, 0.89, 0.89, 0.89, 0.89, 0.45, 0.45, 0.45, 0.45, 0.0, 0.0, 0.0, 0.0, 0.0, 0.0, 0.0, 0.0, 0.0, 0.0, 0.0, 0.0, 0.0, 0.0, 0.0, 0.0, 0.0, 0.0, 0.0, 0.0, 0.0, 0.0, 0.0, 0.45, 0.45, 0.89, 0.89, 1.34, 1.34, 1.34, 1.79, 1.79, 1.79, 1.79, 1.79, 1.79, 2.24, 2.24, 2.24, 2.24, 2.24, 2.24, 2.24, 2.24, 2.24, 2.24, 2.24, 2.24, 2.24, 2.24, 2.24, 1.79, 1.79, 1.79, 1.79, 1.34, 1.34, 1.34, 0.89, 0.89, 0.89, 0.45, 0.45, 0.45, 0.45, 0.0, 0.0, 0.0, 0.0, 0.0, 0.0, 0.0, 0.0, 0.0, 0.0, 1.34, 1.34, 1.34, 1.34, 1.34, 0.89, 0.89, 0.89, 0.89, 0.89, 0.89, 0.89, 0.89, 0.89, 0.89, 0.89, 0.89, 0.89, 0.89, 0.45, 0.45, 0.45, 0.45, 0.0, 0.0, 0.0, 0.0, 0.0, 0.0, 0.0, 0.0, 0.0, 0.0, 0.0, 0.0, 0.0, 0.0, 0.0, 0.0, 0.0, 0.0, 0.0, 0.0, 0.0, 0.0, 0.0, 0.45, 0.45, 0.89, 0.89, 1.34, 1.34, 1.34, 1.34, 1.79, 1.79, 1.79, 1.79, 1.79, 1.79, 2.24, 2.24, 2.24, 2.24, 2.24, 2.24, 2.24, 2.24, 2.24, 2.24, 2.24, 2.24, 2.24, 2.24, 2.24, 1.79, 1.79, 1.79, 1.79, 1.34, 1.34, 0.89, 0.89, 0.89, 0.45, 0.45, 0.45, 0.45, 0.0, 0.0, 0.0, 0.0, 0.0, 0.0, 0.0, 0.0, 0.0, 0.0, 1.34, 1.34, 1.34, 1.34, 1.34, 0.89, 0.89, 0.89, 0.89, 0.89, 0.89, 0.89, 0.89, 0.89, 0.89, 0.89, 0.89, 0.89, 0.89, 0.45, 0.45, 0.45, 0.45, 0.0, 0.0, 0.0, 0.0, 0.0, 0.0, 0.0, 0.0, 0.0, 0.0, 0.0, 0.0, 0.0, 0.0, 0.0, 0.0, 0.0, 0.0, 0.0, 0.0, 0.0, 0.0, 0.0, 0.45, 0.45, 0.89, 0.89, 1.34, 1.34, 1.34, 1.34, 1.34, 1.79, 1.79, 1.79, 1.79, 1.79, 2.24, 2.24, 2.24, 2.24, 2.24, 2.24, 2.24, 2.24, 2.24, 2.24, 2.24, 2.24, 2.24, 2.24, 2.24, 2.24, 1.79, 1.79, 1.79, 1.79, 1.34, 1.34, 0.89, 0.89, 0.45, 0.45, 0.45, 0.45, 0.0, 0.0, 0.0, 0.0, 0.0, 0.0, 0.0, 0.0, 0.0, 0.0, 1.34, 1.34, 1.34, 1.34, 1.34, 0.89, 0.89, 0.89, 0.89, 0.89, 0.89, 0.89, 0.89, 0.89, 0.89, 0.89, 0.89, 0.89, 0.89, 0.45, 0.45, 0.45, 0.45, 0.0, 0.0, 0.0, 0.0, 0.0, 0.0, 0.0, 0.0, 0.0, 0.0, 0.0, 0.0, 0.0, 0.0, 0.0, 0.0, 0.0, 0.0, 0.0, 0.0, 0.0, 0.0, 0.0, 0.45, 0.45, 0.89, 0.89, 0.89, 1.34, 1.34, 1.34, 1.34, 1.79, 1.79, 1.79, 1.79, 1.79, 2.24, 2.24, 2.24, 2.24, 2.24, 2.24, 2.24, 2.24, 2.24, 2.24, 2.24, 2.24, 2.24, 2.24, 2.24, 2.24, 1.79, 1.79, 1.79, 1.79, 1.34, 1.34, 0.89, 0.89, 0.89, 0.45, 0.45, 0.45, 0.45, 0.0, 0.0, 0.0, 0.0, 0.0, 0.0, 0.0, 0.0, 0.0, 1.34, 1.34, 1.34, 1.34, 0.89, 0.89, 0.89, 0.89, 0.89, 0.89, 0.89, 0.89, 0.89, 0.89, 0.89, 0.89, 0.89, 0.89, 0.45, 0.45, 0.45, 0.45, 0.0, 0.0, 0.0, 0.0, 0.0, 0.0, 0.0, 0.0, 0.0, 0.0, 0.0, 0.0, 0.0, 0.0, 0.0, 0.0, 0.0, 0.0, 0.0, 0.0, 0.0, 0.0, 0.0, 0.0, 0.45, 0.45, 0.89, 0.89, 0.89, 0.89, 1.34, 1.34, 1.34, 1.79, 1.79, 1.79, 1.79, 2.24, 2.24, 2.24, 2.24, 2.24, 2.24, 2.24, 2.24, 2.24, 2.24, 2.24, 2.24, 2.24, 2.24, 2.24, 2.24, 2.24, 1.79, 1.79, 1.79, 1.79, 1.34, 1.34, 1.34, 0.89, 0.89, 0.89, 0.45, 0.45, 0.45, 0.0, 0.0, 0.0, 0.0, 0.0, 0.0, 0.0, 0.0, 0.0, 1.34, 1.34, 1.34, 1.34, 0.89, 0.89, 0.89, 0.89, 0.89, 0.89, 0.89, 0.45, 0.45, 0.45, 0.89, 0.89, 0.89, 0.45, 0.45, 0.45, 0.45, 0.0, 0.0, 0.0, 0.0, 0.0, 0.0, 0.0, 0.0, 0.0, 0.0, 0.0, 0.0, 0.0, 0.0, 0.0, 0.0, 0.0, 0.0, 0.0, 0.0, 0.0, 0.0, 0.0, 0.0, 0.0, 0.45, 0.45, 0.45, 0.89, 0.89, 0.89, 1.34, 1.34, 1.34, 1.79, 1.79, 1.79, 1.79, 2.24, 2.24, 2.24, 2.24, 2.24, 2.24, 2.24, 2.24, 2.24, 2.24, 2.24, 2.24, 2.24, 2.24, 1.79, 1.79, 1.79, 1.79, 1.79, 1.79, 1.79, 1.34, 1.34, 1.34, 1.34, 0.89, 0.89, 0.45, 0.45, 0.45, 0.45, 0.45, 0.45, 0.0, 0.0, 0.0, 0.0, 0.0, 0.0, 1.34, 1.34, 1.34, 1.34, 0.89, 0.89, 0.89, 0.89, 0.89, 0.89, 0.45, 0.45, 0.45, 0.45, 0.45, 0.45, 0.45, 0.45, 0.45, 0.45, 0.45, 0.0, 0.0, 0.0, 0.0, 0.0, 0.0, 0.0, 0.0, 0.0, 0.0, 0.0, 0.0, 0.0, 0.0, 0.0, 0.0, 0.0, 0.0, 0.0, 0.0, 0.0, 0.0, 0.0, 0.0, 0.0, 0.45, 0.45, 0.45, 0.89, 0.89, 0.89, 0.89, 1.34, 1.34, 1.79, 1.79, 1.79, 1.79, 2.24, 2.24, 2.24, 2.24, 2.24, 2.24, 2.24, 2.24, 2.24, 2.24, 2.24, 2.24, 2.24, 2.24, 1.79, 1.79, 1.79, 1.79, 1.79, 1.79, 1.79, 1.34, 1.34, 1.34, 1.34, 1.34, 0.89, 0.89, 0.89, 0.89, 0.45, 0.45, 0.45, 0.45, 0.45, 0.0, 0.0, 0.0, 0.0, 1.34, 1.34, 1.34, 0.89, 0.89, 0.89, 0.89, 0.89, 0.89, 0.89, 0.45, 0.45, 0.45, 0.45, 0.45, 0.45, 0.45, 0.45, 0.45, 0.45, 0.45, 0.45, 0.0, 0.0, 0.0, 0.0, 0.0, 0.0, 0.0, 0.0, 0.0, 0.0, 0.0, 0.0, 0.0, 0.0, 0.0, 0.0, 0.0, 0.0, 0.0, 0.0, 0.0, 0.0, 0.0, 0.0, 0.45, 0.45, 0.45, 0.89, 0.89, 0.89, 0.89, 1.34, 1.34, 1.34, 1.79, 1.79, 1.79, 2.24, 2.24, 2.24, 2.24, 2.24, 2.24, 2.24, 2.24, 2.24, 2.24, 2.24, 2.24, 2.24, 2.24, 1.79, 1.79, 1.79, 1.79, 1.79, 1.79, 1.34, 1.34, 1.34, 1.34, 1.34, 0.89, 0.89, 0.89, 0.89, 0.89, 0.89, 0.45, 0.45, 0.45, 0.45, 0.45, 0.0, 0.0, 0.0, 1.34, 1.34, 1.34, 0.89, 0.89, 0.89, 0.89, 0.89, 0.89, 0.45, 0.45, 0.45, 0.45, 0.45, 0.45, 0.45, 0.45, 0.45, 0.45, 0.45, 0.45, 0.45, 0.45, 0.45, 0.0, 0.0, 0.0, 0.0, 0.0, 0.0, 0.0, 0.0, 0.0, 0.0, 0.0, 0.0, 0.0, 0.0, 0.0, 0.0, 0.0, 0.0, 0.0, 0.0, 0.0, 0.45, 0.45, 0.45, 0.45, 0.45, 0.89, 0.89, 0.89, 1.34, 1.34, 1.34, 1.79, 1.79, 1.79, 1.79, 2.24, 2.24, 2.24, 2.24, 2.24, 2.24, 2.24, 2.24, 2.24, 2.24, 2.24, 1.79, 1.79, 1.79, 1.79, 1.79, 1.79, 1.79, 1.34, 1.34, 1.34, 1.34, 1.34, 1.34, 0.89, 0.89, 0.89, 0.89, 0.89, 0.89, 0.89, 0.45, 0.45, 0.45, 0.45, 0.45, 0.45, 0.45, 1.34, 1.34, 1.34, 0.89, 0.89, 0.89, 0.89, 0.89, 0.89, 0.45, 0.45, 0.45, 0.45, 0.45, 0.45, 0.45, 0.45, 0.45, 0.45, 0.45, 0.45, 0.45, 0.45, 0.45, 0.45, 0.0, 0.0, 0.0, 0.0, 0.0, 0.0, 0.0, 0.0, 0.0, 0.0, 0.0, 0.0, 0.0, 0.0, 0.0, 0.0, 0.0, 0.0, 0.0, 0.0, 0.0, 0.45, 0.45, 0.45, 0.45, 0.89, 0.89, 0.89, 1.34, 1.34, 1.34, 1.79, 1.79, 1.79, 1.79, 1.79, 2.24, 2.24, 2.24, 2.24, 2.24, 2.24, 2.24, 2.24, 2.24, 2.24, 1.79, 1.79, 1.79, 1.79, 1.79, 1.79, 1.79, 1.34, 1.34, 1.34, 1.34, 1.34, 1.34, 0.89, 0.89, 0.89, 0.89, 0.89, 0.89, 0.89, 0.45, 0.45, 0.45, 0.45, 0.45, 0.45, 0.45, 1.34, 1.34, 0.89, 0.89, 0.89, 0.89, 0.89, 0.89, 0.89, 0.45, 0.45, 0.45, 0.45, 0.45, 0.45, 0.45, 0.45, 0.45, 0.45, 0.45, 0.45, 0.45, 0.45, 0.45, 0.45, 0.0, 0.0, 0.0, 0.0, 0.0, 0.0, 0.0, 0.0, 0.0, 0.0, 0.0, 0.0, 0.0, 0.0, 0.0, 0.0, 0.0, 0.0, 0.0, 0.0, 0.0, 0.45, 0.45, 0.45, 0.45, 0.45, 0.89, 0.89, 0.89, 1.34, 1.34, 1.34, 1.79, 1.79, 1.79, 1.79, 1.79, 1.79, 2.24, 2.24, 2.24, 2.24, 2.24, 2.24, 2.24, 2.24, 2.24, 1.79, 1.79, 1.79, 1.79, 1.79, 1.34, 1.34, 1.34, 1.34, 1.34, 1.34, 1.34, 0.89, 0.89, 0.89, 0.89, 0.89, 0.89, 0.89, 0.45, 0.45, 0.45, 0.45, 0.0, 0.0, 0.0, 1.34, 1.34, 0.89, 0.89, 0.89, 0.89, 0.89, 0.89, 0.45, 0.45, 0.45, 0.45, 0.45, 0.45, 0.45, 0.45, 0.45, 0.45, 0.45, 0.45, 0.45, 0.45, 0.45, 0.45, 0.45, 0.0, 0.0, 0.0, 0.0, 0.0, 0.0, 0.0, 0.0, 0.0, 0.0, 0.0, 0.0, 0.0, 0.0, 0.0, 0.0, 0.0, 0.0, 0.0, 0.0, 0.0, 0.45, 0.45, 0.45, 0.45, 0.45, 0.45, 0.89, 0.89, 1.34, 1.34, 1.34, 1.79, 1.79, 1.79, 1.79, 1.79, 1.79, 1.79, 1.79, 2.24, 2.24, 2.24, 2.24, 2.24, 2.24, 2.24, 2.24, 1.79, 1.79, 1.79, 1.79, 1.79, 1.34, 1.34, 1.34, 1.34, 1.34, 1.34, 1.34, 0.89, 0.89, 0.89, 0.89, 0.89, 0.89, 0.45, 0.45, 0.45, 0.45, 0.0, 0.0, 0.0, 1.34, 1.34, 0.89, 0.89, 0.89, 0.89, 0.89, 0.89, 0.45, 0.45, 0.45, 0.45, 0.45, 0.45, 0.45, 0.45, 0.45, 0.45, 0.45, 0.45, 0.45, 0.45, 0.45, 0.45, 0.45, 0.0, 0.0, 0.0, 0.0, 0.0, 0.0, 0.0, 0.0, 0.0, 0.0, -0.45, -0.45, 0.0, 0.0, 0.0, 0.0, 0.0, 0.0, 0.0, 0.0, 0.0, 0.0, 0.45, 0.45, 0.45, 0.45, 0.89, 0.89, 0.89, 0.89, 1.34, 1.34, 1.34, 1.79, 1.79, 1.79, 1.79, 1.79, 1.79, 1.79, 1.79, 2.24, 2.24, 2.24, 2.24, 1.79, 1.79, 2.24, 1.79, 1.79, 1.79, 1.79, 1.79, 1.79, 1.34, 1.34, 1.34, 1.34, 1.34, 1.34, 1.34, 0.89, 0.89, 0.89, 0.89, 0.89, 0.45, 0.45, 0.45, 0.0, 0.0, 0.0, 0.0, 1.34, 1.34, 0.89, 0.89, 0.89, 0.89, 0.89, 0.89, 0.45, 0.45, 0.45, 0.45, 0.45, 0.45, 0.45, 0.45, 0.45, 0.45, 0.45, 0.45, 0.45, 0.45, 0.45, 0.45, 0.45, 0.0, 0.0, 0.0, 0.0, 0.0, 0.0, 0.0, 0.0, 0.0, 0.0, -0.45, -0.45, -0.45, 0.0, 0.0, 0.0, 0.0, 0.0, 0.0, 0.0, 0.0, 0.0, 0.0, 0.45, 0.45, 0.45, 0.45, 0.89, 0.89, 0.89, 1.34, 1.34, 1.34, 1.34, 1.79, 1.79, 1.79, 1.79, 1.79, 1.79, 1.79, 1.79, 1.79, 2.24, 1.79, 1.79, 1.79, 1.79, 1.79, 1.79, 1.79, 1.79, 1.79, 1.79, 1.34, 1.34, 1.34, 1.34, 1.34, 1.79, 1.34, 1.34, 0.89, 0.89, 0.89, 0.89, 0.45, 0.45, 0.45, 0.45, 0.0, 0.0, 0.0, 1.34, 1.34, 0.89, 0.89, 0.89, 0.89, 0.89, 0.89, 0.45, 0.45, 0.45, 0.45, 0.45, 0.45, 0.45, 0.45, 0.45, 0.45, 0.45, 0.45, 0.45, 0.45, 0.45, 0.45, 0.45, 0.0, 0.0, 0.0, 0.0, 0.0, 0.0, 0.0, 0.0, 0.0, -0.45, -0.45, -0.45, -0.45, -0.45, 0.0, 0.0, 0.0, 0.0, 0.0, 0.0, 0.0, 0.0, 0.0, 0.0, 0.0, 0.45, 0.45, 0.45, 0.89, 0.89, 0.89, 1.34, 1.34, 1.34, 1.34, 1.79, 1.79, 1.79, 1.79, 1.79, 1.79, 1.79, 1.79, 1.79, 1.79, 1.79, 1.79, 1.79, 2.24, 2.24, 1.79, 1.79, 1.79, 1.79, 1.79, 1.34, 1.34, 1.34, 1.34, 1.34, 1.34, 1.34, 1.34, 0.89, 0.89, 0.89, 0.89, 0.45, 0.45, 0.45, 0.0, 0.0, 0.0, 1.34, 1.34, 0.89, 0.89, 0.89, 0.89, 0.89, 0.45, 0.45, 0.45, 0.45, 0.45, 0.45, 0.45, 0.45, 0.45, 0.45, 0.45, 0.45, 0.45, 0.45, 0.45, 0.45, 0.45, 0.45, 0.0, 0.0, 0.0, 0.0, 0.0, 0.0, 0.0, 0.0, 0.0, -0.45, -0.45, -0.45, -0.45, -0.45, -0.45, 0.0, 0.0, 0.0, 0.0, 0.0, 0.0, 0.0, 0.0, 0.0, 0.0, 0.45, 0.45, 0.45, 0.45, 0.89, 0.89, 0.89, 1.34, 1.34, 1.34, 1.34, 1.34, 1.79, 1.79, 1.79, 1.79, 1.79, 1.79, 1.79, 1.79, 1.79, 1.79, 2.24, 2.24, 2.24, 2.24, 1.79, 1.79, 1.79, 1.79, 1.34, 1.34, 1.34, 1.34, 1.34, 1.34, 1.34, 1.34, 0.89, 0.89, 0.89, 0.89, 0.45, 0.45, 0.45, 0.45, 0.45, 0.45, 0.89, 0.89, 0.89, 0.89, 0.89, 0.89, 0.89, 0.45, 0.45, 0.45, 0.45, 0.45, 0.45, 0.45, 0.45, 0.45, 0.45, 0.45, 0.45, 0.45, 0.45, 0.45, 0.45, 0.45, 0.45, 0.0, 0.0, 0.0, 0.0, 0.0, 0.0, 0.0, 0.0, 0.0, 0.0, -0.45, -0.45, -0.45, -0.45, -0.45, -0.45, -0.45, 0.0, 0.0, 0.0, 0.0, 0.0, 0.0, 0.0, 0.0, 0.45, 0.45, 0.45, 0.45, 0.89, 0.89, 0.89, 1.34, 1.34, 1.34, 1.34, 1.34, 1.34, 1.79, 1.79, 1.79, 1.79, 1.79, 1.79, 1.79, 1.79, 1.79, 2.24, 2.24, 2.24, 2.24, 1.79, 1.79, 1.79, 1.79, 1.34, 1.34, 1.34, 1.34, 1.34, 1.34, 1.34, 0.89, 0.89, 0.89, 0.89, 0.89, 0.89, 0.45, 0.45, 0.45, 0.45, 0.45, 0.89, 0.89, 0.89, 0.89, 0.89, 0.89, 0.89, 0.45, 0.45, 0.45, 0.45, 0.45, 0.45, 0.45, 0.45, 0.45, 0.45, 0.45, 0.45, 0.45, 0.45, 0.45, 0.45, 0.45, 0.45, 0.0, 0.0, 0.0, 0.0, 0.0, 0.0, 0.0, 0.0, 0.0, 0.0, -0.45, -0.45, -0.45, -0.45, -0.45, -0.45, -0.45, 0.0, 0.0, 0.0, 0.0, 0.0, 0.0, 0.0, 0.0, 0.45, 0.45, 0.45, 0.45, 0.89, 0.89, 0.89, 1.34, 1.34, 1.34, 1.34, 1.34, 1.34, 1.79, 1.79, 1.79, 1.79, 1.79, 1.79, 1.79, 1.79, 1.79, 2.24, 2.24, 2.24, 2.24, 1.79, 1.79, 1.79, 1.79, 1.34, 1.34, 1.34, 1.34, 1.34, 1.34, 1.34, 0.89, 0.89, 0.89, 0.89, 0.89, 0.89, 0.89, 0.45, 0.45, 0.45, 0.45]}]